Time,TemperatureF,DewpointF,PressureIn,WindDirection,WindDirectionDegrees,WindSpeedMPH,WindSpeedGustMPH,Humidity,HourlyPrecipIn,Conditions,Clouds,dailyrainin,SolarRadiationWatts/m^2,SoftwareType,DateUTC
2013-03-14 00:02:00,26.7,21.4,30.30,SE,126,4.0,4.0,80,0.00,,,0.00,0,Wunderground v.1.15,2013-03-14 05:02:00,
2013-03-14 00:03:00,26.7,21.4,30.30,SE,126,3.0,4.0,80,0.00,,,0.00,0,Wunderground v.1.15,2013-03-14 05:03:00,
2013-03-14 00:09:00,27.1,21.5,30.30,SE,130,4.0,4.0,79,0.00,,,0.00,0,Wunderground v.1.15,2013-03-14 05:09:00,
2013-03-14 00:10:00,27.1,21.5,30.30,ESE,123,4.0,4.0,79,0.00,,,0.00,0,Wunderground v.1.15,2013-03-14 05:10:00,
2013-03-14 00:11:00,27.2,21.5,30.29,ESE,119,5.0,5.0,79,0.00,,,0.00,0,Wunderground v.1.15,2013-03-14 05:11:00,
2013-03-14 00:12:00,27.2,21.5,30.29,ESE,119,5.0,5.0,79,0.00,,,0.00,0,Wunderground v.1.15,2013-03-14 05:12:00,
2013-03-14 00:16:00,27.0,21.7,30.30,ESE,117,3.0,5.0,80,0.00,,,0.00,0,Wunderground v.1.15,2013-03-14 05:16:00,
2013-03-14 00:17:00,27.0,21.7,30.30,ESE,117,2.0,5.0,80,0.00,,,0.00,0,Wunderground v.1.15,2013-03-14 05:17:00,
2013-03-14 00:19:00,27.0,21.7,30.30,ESE,117,3.0,5.0,80,0.00,,,0.00,0,Wunderground v.1.15,2013-03-14 05:19:00,
2013-03-14 00:22:00,27.0,21.7,30.30,ESE,121,5.0,5.0,80,0.00,,,0.00,0,Wunderground v.1.15,2013-03-14 05:22:00,
2013-03-14 00:23:00,27.1,21.7,30.30,ESE,121,7.0,7.0,80,0.00,,,0.00,0,Wunderground v.1.15,2013-03-14 05:23:00,
2013-03-14 00:26:00,27.3,21.6,30.30,ESE,120,4.0,7.0,79,0.00,,,0.00,0,Wunderground v.1.15,2013-03-14 05:26:00,
2013-03-14 00:29:00,27.6,21.6,30.30,ESE,121,4.0,7.0,78,0.00,,,0.00,0,Wunderground v.1.15,2013-03-14 05:29:00,
2013-03-14 00:31:00,27.7,21.7,30.29,ESE,114,7.0,7.0,78,0.00,,,0.00,0,Wunderground v.1.15,2013-03-14 05:31:00,
2013-03-14 00:32:00,27.8,21.8,30.29,ESE,122,5.0,7.0,78,0.00,,,0.00,0,Wunderground v.1.15,2013-03-14 05:32:00,
2013-03-14 00:33:00,27.8,21.8,30.29,ESE,117,5.0,7.0,78,0.00,,,0.00,0,Wunderground v.1.15,2013-03-14 05:33:00,
2013-03-14 00:35:00,27.9,21.6,30.28,ESE,113,5.0,8.0,77,0.00,,,0.00,0,Wunderground v.1.15,2013-03-14 05:35:00,
2013-03-14 00:38:00,27.9,21.6,30.28,ESE,119,8.0,8.0,77,0.00,,,0.00,0,Wunderground v.1.15,2013-03-14 05:38:00,
2013-03-14 00:39:00,27.9,21.6,30.28,ESE,115,7.0,8.0,77,0.00,,,0.00,0,Wunderground v.1.15,2013-03-14 05:39:00,
2013-03-14 00:40:00,27.9,21.6,30.29,ESE,118,5.0,6.0,77,0.00,,,0.00,0,Wunderground v.1.15,2013-03-14 05:40:00,
2013-03-14 00:43:00,27.9,21.6,30.28,ESE,117,7.0,7.0,77,0.00,,,0.00,0,Wunderground v.1.15,2013-03-14 05:43:00,
2013-03-14 00:44:00,27.9,21.6,30.28,ESE,121,4.0,7.0,77,0.00,,,0.00,0,Wunderground v.1.15,2013-03-14 05:44:00,
2013-03-14 00:49:00,28.2,21.9,30.28,ESE,113,4.0,8.0,77,0.00,,,0.00,0,Wunderground v.1.15,2013-03-14 05:49:00,
2013-03-14 00:50:00,28.1,21.8,30.28,ESE,112,4.0,6.0,77,0.00,,,0.00,0,Wunderground v.1.15,2013-03-14 05:50:00,
2013-03-14 00:51:00,28.1,21.8,30.28,ESE,117,5.0,6.0,77,0.00,,,0.00,0,Wunderground v.1.15,2013-03-14 05:51:00,
2013-03-14 00:54:00,28.1,21.8,30.28,ESE,113,7.0,8.0,77,0.00,,,0.00,0,Wunderground v.1.15,2013-03-14 05:54:00,
2013-03-14 00:55:00,28.1,21.8,30.28,ESE,114,7.0,8.0,77,0.00,,,0.00,0,Wunderground v.1.15,2013-03-14 05:55:00,
2013-03-14 00:56:00,28.1,21.8,30.28,ESE,118,8.0,8.0,77,0.00,,,0.00,0,Wunderground v.1.15,2013-03-14 05:56:00,
2013-03-14 00:58:00,28.1,21.8,30.28,ESE,113,5.0,8.0,77,0.00,,,0.00,0,Wunderground v.1.15,2013-03-14 05:58:00,
2013-03-14 01:02:00,28.1,21.8,30.28,ESE,117,4.0,7.0,77,0.00,,,0.00,0,Wunderground v.1.15,2013-03-14 06:02:00,
2013-03-14 01:03:00,28.1,21.8,30.27,ESE,119,9.0,9.0,77,0.00,,,0.00,0,Wunderground v.1.15,2013-03-14 06:03:00,
2013-03-14 01:08:00,28.0,22.0,30.27,SE,124,7.0,9.0,78,0.00,,,0.00,0,Wunderground v.1.15,2013-03-14 06:08:00,
2013-03-14 01:09:00,28.0,22.0,30.27,SE,130,6.0,9.0,78,0.00,,,0.00,0,Wunderground v.1.15,2013-03-14 06:09:00,
2013-03-14 01:12:00,28.0,22.0,30.27,ESE,116,7.0,8.0,78,0.00,,,0.00,0,Wunderground v.1.15,2013-03-14 06:12:00,
2013-03-14 01:13:00,28.0,22.0,30.27,ESE,121,7.0,8.0,78,0.00,,,0.00,0,Wunderground v.1.15,2013-03-14 06:13:00,
2013-03-14 01:14:00,28.0,22.0,30.27,ESE,119,7.0,8.0,78,0.00,,,0.00,0,Wunderground v.1.15,2013-03-14 06:14:00,
2013-03-14 01:19:00,27.7,21.7,30.27,ESE,113,4.0,8.0,78,0.00,,,0.00,0,Wunderground v.1.15,2013-03-14 06:19:00,
2013-03-14 01:20:00,27.7,22.0,30.27,ESE,116,7.0,8.0,79,0.00,,,0.00,0,Wunderground v.1.15,2013-03-14 06:20:00,
2013-03-14 01:24:00,27.8,22.1,30.26,SE,130,7.0,7.0,79,0.00,,,0.00,0,Wunderground v.1.15,2013-03-14 06:24:00,
2013-03-14 01:25:00,27.9,21.9,30.26,SE,127,6.0,7.0,78,0.00,,,0.00,0,Wunderground v.1.15,2013-03-14 06:25:00,
2013-03-14 01:26:00,27.9,21.9,30.26,ESE,119,8.0,8.0,78,0.00,,,0.00,0,Wunderground v.1.15,2013-03-14 06:26:00,
2013-03-14 01:29:00,28.1,22.1,30.26,ESE,121,5.0,8.0,78,0.00,,,0.00,0,Wunderground v.1.15,2013-03-14 06:29:00,
2013-03-14 01:31:00,28.1,22.1,30.26,SE,131,5.0,6.0,78,0.00,,,0.00,0,Wunderground v.1.15,2013-03-14 06:31:00,
2013-03-14 01:33:00,28.1,22.1,30.26,ESE,118,9.0,9.0,78,0.00,,,0.00,0,Wunderground v.1.15,2013-03-14 06:33:00,
2013-03-14 01:37:00,28.1,22.1,30.25,SE,139,4.0,9.0,78,0.00,,,0.00,0,Wunderground v.1.15,2013-03-14 06:37:00,
2013-03-14 01:40:00,28.2,22.2,30.25,SE,138,6.0,9.0,78,0.00,,,0.00,0,Wunderground v.1.15,2013-03-14 06:40:00,
2013-03-14 01:41:00,28.2,22.2,30.25,SE,128,4.0,6.0,78,0.00,,,0.00,0,Wunderground v.1.15,2013-03-14 06:41:00,
2013-03-14 01:43:00,28.3,22.3,30.24,SE,129,5.0,6.0,78,0.00,,,0.00,0,Wunderground v.1.15,2013-03-14 06:43:00,
2013-03-14 01:44:00,28.4,22.4,30.25,ESE,117,7.0,7.0,78,0.00,,,0.00,0,Wunderground v.1.15,2013-03-14 06:44:00,
2013-03-14 01:49:00,28.5,22.5,30.24,ESE,113,8.0,8.0,78,0.00,,,0.00,0,Wunderground v.1.15,2013-03-14 06:49:00,
2013-03-14 01:50:00,28.6,22.6,30.24,SE,138,7.0,8.0,78,0.00,,,0.00,0,Wunderground v.1.15,2013-03-14 06:50:00,
2013-03-14 01:52:00,28.7,22.7,30.24,SSE,157,5.0,8.0,78,0.00,,,0.00,0,Wunderground v.1.15,2013-03-14 06:52:00,
2013-03-14 01:55:00,28.9,22.9,30.24,SE,130,5.0,8.0,78,0.00,,,0.00,0,Wunderground v.1.15,2013-03-14 06:55:00,
2013-03-14 01:59:00,28.9,22.9,30.24,SE,134,7.0,8.0,78,0.00,,,0.00,0,Wunderground v.1.15,2013-03-14 06:59:00,
2013-03-14 02:00:00,29.0,23.0,30.24,SE,138,8.0,8.0,78,0.00,,,0.00,0,Wunderground v.1.15,2013-03-14 07:00:00,
2013-03-14 02:01:00,29.1,23.4,30.24,SE,146,8.0,8.0,79,0.00,,,0.00,0,Wunderground v.1.15,2013-03-14 07:01:00,
2013-03-14 02:05:00,29.0,23.3,30.24,SE,142,5.0,9.0,79,0.00,,,0.00,0,Wunderground v.1.15,2013-03-14 07:05:00,
2013-03-14 02:06:00,28.9,23.2,30.24,SE,145,7.0,9.0,79,0.00,,,0.00,0,Wunderground v.1.15,2013-03-14 07:06:00,
2013-03-14 02:11:00,28.6,23.2,30.24,SE,144,5.0,8.0,80,0.00,,,0.00,0,Wunderground v.1.15,2013-03-14 07:11:00,
2013-03-14 02:12:00,28.5,23.1,30.24,SE,137,7.0,8.0,80,0.00,,,0.00,0,Wunderground v.1.15,2013-03-14 07:12:00,
2013-03-14 02:13:00,28.6,23.2,30.24,SE,137,7.0,8.0,80,0.00,,,0.00,0,Wunderground v.1.15,2013-03-14 07:13:00,
2013-03-14 02:17:00,28.7,23.3,30.24,SE,138,7.0,8.0,80,0.00,,,0.00,0,Wunderground v.1.15,2013-03-14 07:17:00,
2013-03-14 02:18:00,28.8,23.4,30.24,SE,136,4.0,8.0,80,0.00,,,0.00,0,Wunderground v.1.15,2013-03-14 07:18:00,
2013-03-14 02:22:00,29.0,23.6,30.24,SE,144,6.0,7.0,80,0.00,,,0.00,0,Wunderground v.1.15,2013-03-14 07:22:00,
2013-03-14 02:23:00,29.1,23.7,30.24,SE,144,8.0,8.0,80,0.00,,,0.00,0,Wunderground v.1.15,2013-03-14 07:23:00,
2013-03-14 02:28:00,29.3,23.9,30.24,SSE,149,7.0,9.0,80,0.00,,,0.00,0,Wunderground v.1.15,2013-03-14 07:28:00,
2013-03-14 02:29:00,29.3,23.9,30.24,SE,146,5.0,9.0,80,0.00,,,0.00,0,Wunderground v.1.15,2013-03-14 07:29:00,
2013-03-14 02:32:00,29.3,23.9,30.23,SE,142,5.0,9.0,80,0.00,,,0.00,0,Wunderground v.1.15,2013-03-14 07:32:00,
2013-03-14 02:33:00,29.2,23.8,30.23,SE,142,8.0,9.0,80,0.00,,,0.00,0,Wunderground v.1.15,2013-03-14 07:33:00,
2013-03-14 02:34:00,29.2,23.8,30.23,SE,138,6.0,9.0,80,0.00,,,0.00,0,Wunderground v.1.15,2013-03-14 07:34:00,
2013-03-14 02:38:00,29.2,23.8,30.23,SE,142,6.0,9.0,80,0.00,,,0.00,0,Wunderground v.1.15,2013-03-14 07:38:00,
2013-03-14 02:39:00,29.2,23.8,30.23,SE,144,6.0,9.0,80,0.00,,,0.00,0,Wunderground v.1.15,2013-03-14 07:39:00,
2013-03-14 02:40:00,29.1,23.7,30.23,SE,140,7.0,7.0,80,0.00,,,0.00,0,Wunderground v.1.15,2013-03-14 07:40:00,
2013-03-14 02:43:00,29.1,24.0,30.23,SE,133,6.0,8.0,81,0.00,,,0.00,0,Wunderground v.1.15,2013-03-14 07:43:00,
2013-03-14 02:44:00,29.0,23.9,30.23,SSE,147,7.0,8.0,81,0.00,,,0.00,0,Wunderground v.1.15,2013-03-14 07:44:00,
2013-03-14 02:46:00,29.0,23.9,30.23,SE,142,6.0,9.0,81,0.00,,,0.00,0,Wunderground v.1.15,2013-03-14 07:46:00,
2013-03-14 02:47:00,29.1,24.0,30.23,SE,139,6.0,9.0,81,0.00,,,0.00,0,Wunderground v.1.15,2013-03-14 07:47:00,
2013-03-14 02:49:00,29.0,23.9,30.23,SE,137,8.0,9.0,81,0.00,,,0.00,0,Wunderground v.1.15,2013-03-14 07:49:00,
2013-03-14 02:51:00,29.0,23.9,30.23,SE,144,7.0,8.0,81,0.00,,,0.00,0,Wunderground v.1.15,2013-03-14 07:51:00,
2013-03-14 02:54:00,29.0,23.9,30.23,SE,144,6.0,9.0,81,0.00,,,0.00,0,Wunderground v.1.15,2013-03-14 07:54:00,
2013-03-14 02:55:00,28.9,23.8,30.23,SE,141,6.0,9.0,81,0.00,,,0.00,0,Wunderground v.1.15,2013-03-14 07:55:00,
2013-03-14 02:58:00,28.8,24.0,30.23,SE,138,6.0,9.0,82,0.00,,,0.00,0,Wunderground v.1.15,2013-03-14 07:58:00,
2013-03-14 03:00:00,28.8,24.0,30.23,SE,144,8.0,8.0,82,0.00,,,0.00,0,Wunderground v.1.15,2013-03-14 08:00:00,
2013-03-14 03:01:00,28.7,23.9,30.23,SE,138,7.0,8.0,82,0.00,,,0.00,0,Wunderground v.1.15,2013-03-14 08:01:00,
2013-03-14 03:03:00,28.8,24.0,30.22,SE,132,7.0,9.0,82,0.00,,,0.00,0,Wunderground v.1.15,2013-03-14 08:03:00,
2013-03-14 03:05:00,28.9,24.1,30.21,SE,133,7.0,9.0,82,0.00,,,0.00,0,Wunderground v.1.15,2013-03-14 08:05:00,
2013-03-14 03:08:00,29.1,24.0,30.22,SE,139,8.0,9.0,81,0.00,,,0.00,0,Wunderground v.1.15,2013-03-14 08:08:00,
2013-03-14 03:09:00,29.2,24.1,30.22,SE,134,6.0,9.0,81,0.00,,,0.00,0,Wunderground v.1.15,2013-03-14 08:09:00,
2013-03-14 03:12:00,29.4,24.3,30.22,SE,128,8.0,9.0,81,0.00,,,0.00,0,Wunderground v.1.15,2013-03-14 08:12:00,
2013-03-14 03:14:00,29.7,24.3,30.22,SE,127,6.0,9.0,80,0.00,,,0.00,0,Wunderground v.1.15,2013-03-14 08:14:00,
2013-03-14 03:15:00,29.7,24.3,30.22,SE,137,6.0,9.0,80,0.00,,,0.00,0,Wunderground v.1.15,2013-03-14 08:15:00,
2013-03-14 03:17:00,29.8,24.4,30.21,SE,139,6.0,9.0,80,0.00,,,0.00,0,Wunderground v.1.15,2013-03-14 08:17:00,
2013-03-14 03:19:00,29.8,24.4,30.21,SE,130,7.0,9.0,80,0.00,,,0.00,0,Wunderground v.1.15,2013-03-14 08:19:00,
2013-03-14 03:20:00,29.8,24.4,30.21,SE,135,6.0,7.0,80,0.00,,,0.00,0,Wunderground v.1.15,2013-03-14 08:20:00,
2013-03-14 03:22:00,29.8,24.4,30.21,SE,143,8.0,8.0,80,0.00,,,0.00,0,Wunderground v.1.15,2013-03-14 08:22:00,
2013-03-14 03:25:00,29.7,24.6,30.21,SE,144,5.0,8.0,81,0.00,,,0.00,0,Wunderground v.1.15,2013-03-14 08:25:00,
2013-03-14 03:26:00,29.8,24.7,30.22,SE,135,5.0,8.0,81,0.00,,,0.00,0,Wunderground v.1.15,2013-03-14 08:26:00,
2013-03-14 03:27:00,29.8,24.7,30.21,SE,142,6.0,8.0,81,0.00,,,0.00,0,Wunderground v.1.15,2013-03-14 08:27:00,
2013-03-14 03:30:00,29.8,24.7,30.21,SSE,148,6.0,7.0,81,0.00,,,0.00,0,Wunderground v.1.15,2013-03-14 08:30:00,
2013-03-14 03:33:00,29.9,24.8,30.22,SE,142,6.0,7.0,81,0.00,,,0.00,0,Wunderground v.1.15,2013-03-14 08:33:00,
2013-03-14 03:36:00,29.9,24.8,30.21,SE,140,6.0,8.0,81,0.00,,,0.00,0,Wunderground v.1.15,2013-03-14 08:36:00,
2013-03-14 03:38:00,30.0,24.9,30.21,SE,138,6.0,8.0,81,0.00,,,0.00,0,Wunderground v.1.15,2013-03-14 08:38:00,
2013-03-14 03:39:00,30.0,24.9,30.21,SE,138,5.0,8.0,81,0.00,,,0.00,0,Wunderground v.1.15,2013-03-14 08:39:00,
2013-03-14 03:42:00,30.1,25.0,30.21,SE,144,8.0,8.0,81,0.00,,,0.00,0,Wunderground v.1.15,2013-03-14 08:42:00,
2013-03-14 03:44:00,30.1,25.0,30.20,SE,132,6.0,8.0,81,0.00,,,0.00,0,Wunderground v.1.15,2013-03-14 08:44:00,
2013-03-14 03:45:00,30.2,25.1,30.20,SE,128,7.0,8.0,81,0.00,,,0.00,0,Wunderground v.1.15,2013-03-14 08:45:00,
2013-03-14 03:48:00,30.2,25.1,30.20,SE,142,6.0,8.0,81,0.00,,,0.00,0,Wunderground v.1.15,2013-03-14 08:48:00,
2013-03-14 03:50:00,30.3,25.2,30.20,SE,142,6.0,7.0,81,0.00,,,0.00,0,Wunderground v.1.15,2013-03-14 08:50:00,
2013-03-14 03:52:00,30.2,25.1,30.19,SE,146,10.0,10.0,81,0.00,,,0.00,0,Wunderground v.1.15,2013-03-14 08:52:00,
2013-03-14 03:55:00,30.2,25.1,30.19,SE,135,8.0,10.0,81,0.00,,,0.00,0,Wunderground v.1.15,2013-03-14 08:55:00,
2013-03-14 03:56:00,30.3,25.2,30.19,SE,140,7.0,10.0,81,0.00,,,0.00,0,Wunderground v.1.15,2013-03-14 08:56:00,
2013-03-14 03:58:00,30.3,25.2,30.19,SE,139,6.0,10.0,81,0.00,,,0.00,0,Wunderground v.1.15,2013-03-14 08:58:00,
2013-03-14 04:00:00,30.3,25.2,30.18,SE,144,7.0,7.0,81,0.00,,,0.00,0,Wunderground v.1.15,2013-03-14 09:00:00,
2013-03-14 04:01:00,30.3,25.2,30.18,SE,139,9.0,9.0,81,0.00,,,0.00,0,Wunderground v.1.15,2013-03-14 09:01:00,
2013-03-14 04:03:00,30.2,25.4,30.18,SE,144,8.0,10.0,82,0.00,,,0.00,0,Wunderground v.1.15,2013-03-14 09:03:00,
2013-03-14 04:05:00,30.1,25.3,30.18,SE,142,8.0,10.0,82,0.00,,,0.00,0,Wunderground v.1.15,2013-03-14 09:05:00,
2013-03-14 04:06:00,30.1,25.3,30.18,SE,146,10.0,10.0,82,0.00,,,0.00,0,Wunderground v.1.15,2013-03-14 09:06:00,
2013-03-14 04:08:00,30.1,25.3,30.18,SE,140,6.0,11.0,82,0.00,,,0.00,0,Wunderground v.1.15,2013-03-14 09:08:00,
2013-03-14 04:09:00,30.1,25.3,30.18,SE,142,8.0,11.0,82,0.00,,,0.00,0,Wunderground v.1.15,2013-03-14 09:09:00,
2013-03-14 04:11:00,30.0,25.2,30.17,SE,139,8.0,9.0,82,0.00,,,0.00,0,Wunderground v.1.15,2013-03-14 09:11:00,
2013-03-14 04:12:00,30.0,25.2,30.17,SE,138,10.0,10.0,82,0.00,,,0.00,0,Wunderground v.1.15,2013-03-14 09:12:00,
2013-03-14 04:14:00,30.0,25.2,30.17,SE,134,8.0,10.0,82,0.00,,,0.00,0,Wunderground v.1.15,2013-03-14 09:14:00,
2013-03-14 04:16:00,30.0,25.2,30.17,SSE,152,7.0,11.0,82,0.00,,,0.00,0,Wunderground v.1.15,2013-03-14 09:16:00,
2013-03-14 04:18:00,29.9,25.1,30.17,SE,140,8.0,11.0,82,0.00,,,0.00,0,Wunderground v.1.15,2013-03-14 09:18:00,
2013-03-14 04:19:00,29.9,25.1,30.16,SE,138,8.0,11.0,82,0.00,,,0.00,0,Wunderground v.1.15,2013-03-14 09:19:00,
2013-03-14 04:20:00,29.9,25.1,30.16,SE,144,10.0,10.0,82,0.00,,,0.00,0,Wunderground v.1.15,2013-03-14 09:20:00,
2013-03-14 04:23:00,29.9,25.1,30.16,SE,135,8.0,10.0,82,0.00,,,0.00,0,Wunderground v.1.15,2013-03-14 09:23:00,
2013-03-14 04:24:00,29.8,25.0,30.16,SE,144,9.0,12.0,82,0.00,,,0.00,0,Wunderground v.1.15,2013-03-14 09:24:00,
2013-03-14 04:26:00,29.8,25.0,30.16,SE,143,8.0,12.0,82,0.00,,,0.00,0,Wunderground v.1.15,2013-03-14 09:26:00,
2013-03-14 04:27:00,29.8,25.0,30.16,SE,134,9.0,12.0,82,0.00,,,0.00,0,Wunderground v.1.15,2013-03-14 09:27:00,
2013-03-14 04:28:00,29.8,25.0,30.16,SE,138,8.0,12.0,82,0.00,,,0.00,0,Wunderground v.1.15,2013-03-14 09:28:00,
2013-03-14 04:29:00,29.7,25.2,30.16,SE,146,7.0,12.0,83,0.00,,,0.00,0,Wunderground v.1.15,2013-03-14 09:29:00,
2013-03-14 04:31:00,29.7,25.2,30.16,SSE,147,8.0,10.0,83,0.00,,,0.00,0,Wunderground v.1.15,2013-03-14 09:31:00,
2013-03-14 04:33:00,29.6,25.1,30.16,SSE,149,8.0,10.0,83,0.00,,,0.00,0,Wunderground v.1.15,2013-03-14 09:33:00,
2013-03-14 04:34:00,29.6,25.1,30.16,SE,142,9.0,10.0,83,0.00,,,0.00,0,Wunderground v.1.15,2013-03-14 09:34:00,
2013-03-14 04:35:00,29.6,25.1,30.16,SE,142,8.0,10.0,83,0.00,,,0.00,0,Wunderground v.1.15,2013-03-14 09:35:00,
2013-03-14 04:37:00,29.5,25.0,30.15,SSE,152,8.0,10.0,83,0.00,,,0.00,0,Wunderground v.1.15,2013-03-14 09:37:00,
2013-03-14 04:39:00,29.4,24.9,30.15,SE,146,8.0,10.0,83,0.00,,,0.00,0,Wunderground v.1.15,2013-03-14 09:39:00,
2013-03-14 04:40:00,29.4,25.2,30.15,SSE,147,10.0,10.0,84,0.00,,,0.00,0,Wunderground v.1.15,2013-03-14 09:40:00,
2013-03-14 04:44:00,29.4,25.2,30.16,SSE,150,7.0,10.0,84,0.00,,,0.00,0,Wunderground v.1.15,2013-03-14 09:44:00,
2013-03-14 04:45:00,29.4,25.2,30.16,SSE,148,7.0,10.0,84,0.00,,,0.00,0,Wunderground v.1.15,2013-03-14 09:45:00,
2013-03-14 04:46:00,29.4,25.2,30.16,SE,146,8.0,10.0,84,0.00,,,0.00,0,Wunderground v.1.15,2013-03-14 09:46:00,
2013-03-14 04:49:00,29.5,25.5,30.16,SE,142,8.0,10.0,85,0.00,,,0.00,0,Wunderground v.1.15,2013-03-14 09:49:00,
2013-03-14 04:50:00,29.6,25.6,30.15,SSE,150,7.0,8.0,85,0.00,,,0.00,0,Wunderground v.1.15,2013-03-14 09:50:00,
2013-03-14 04:52:00,29.6,25.6,30.15,SSE,154,8.0,9.0,85,0.00,,,0.00,0,Wunderground v.1.15,2013-03-14 09:52:00,
2013-03-14 04:54:00,29.7,25.7,30.14,SE,142,8.0,9.0,85,0.00,,,0.00,0,Wunderground v.1.15,2013-03-14 09:54:00,
2013-03-14 04:57:00,29.7,25.7,30.14,SE,139,9.0,11.0,85,0.00,,,0.00,0,Wunderground v.1.15,2013-03-14 09:57:00,
2013-03-14 04:58:00,29.7,25.7,30.14,SE,145,7.0,11.0,85,0.00,,,0.00,0,Wunderground v.1.15,2013-03-14 09:58:00,
2013-03-14 05:01:00,29.8,25.8,30.14,SE,146,9.0,9.0,85,0.00,,,0.00,0,Wunderground v.1.15,2013-03-14 10:01:00,
2013-03-14 05:03:00,29.8,25.8,30.13,SSE,150,8.0,10.0,85,0.00,,,0.00,0,Wunderground v.1.15,2013-03-14 10:03:00,
2013-03-14 05:04:00,29.9,25.9,30.13,SE,136,9.0,10.0,85,0.00,,,0.00,0,Wunderground v.1.15,2013-03-14 10:04:00,
2013-03-14 05:08:00,29.9,25.9,30.13,SE,142,9.0,11.0,85,0.00,,,0.00,0,Wunderground v.1.15,2013-03-14 10:08:00,
2013-03-14 05:09:00,29.9,25.9,30.13,SSE,147,8.0,11.0,85,0.00,,,0.00,0,Wunderground v.1.15,2013-03-14 10:09:00,
2013-03-14 05:10:00,29.8,25.8,30.13,SSE,153,8.0,8.0,85,0.00,,,0.00,0,Wunderground v.1.15,2013-03-14 10:10:00,
2013-03-14 05:14:00,29.7,25.7,30.14,SSE,148,7.0,8.0,85,0.00,,,0.00,0,Wunderground v.1.15,2013-03-14 10:14:00,
2013-03-14 05:15:00,29.8,25.8,30.14,SSE,157,6.0,8.0,85,0.00,,,0.00,0,Wunderground v.1.15,2013-03-14 10:15:00,
2013-03-14 05:16:00,29.8,25.8,30.14,SSE,151,7.0,9.0,85,0.00,,,0.00,0,Wunderground v.1.15,2013-03-14 10:16:00,
2013-03-14 05:19:00,30.0,25.8,30.14,SSE,155,7.0,9.0,84,0.00,,,0.00,0,Wunderground v.1.15,2013-03-14 10:19:00,
2013-03-14 05:21:00,30.1,25.8,30.14,SSE,161,7.0,9.0,84,0.00,,,0.00,0,Wunderground v.1.15,2013-03-14 10:21:00,
2013-03-14 05:22:00,30.1,25.8,30.13,SSE,160,6.0,9.0,84,0.00,,,0.00,0,Wunderground v.1.15,2013-03-14 10:22:00,
2013-03-14 05:25:00,30.3,26.0,30.13,SSE,150,10.0,10.0,84,0.00,,,0.00,0,Wunderground v.1.15,2013-03-14 10:25:00,
2013-03-14 05:27:00,30.5,26.2,30.13,SSE,159,7.0,10.0,84,0.00,,,0.00,0,Wunderground v.1.15,2013-03-14 10:27:00,
2013-03-14 05:28:00,30.5,26.2,30.13,SSE,161,8.0,10.0,84,0.00,,,0.00,0,Wunderground v.1.15,2013-03-14 10:28:00,
2013-03-14 05:32:00,30.7,26.1,30.14,SSE,156,5.0,7.0,83,0.00,,,0.00,0,Wunderground v.1.15,2013-03-14 10:32:00,
2013-03-14 05:33:00,30.7,26.4,30.14,SSE,159,7.0,7.0,84,0.00,,,0.00,0,Wunderground v.1.15,2013-03-14 10:33:00,
2013-03-14 05:34:00,30.7,26.4,30.14,SE,146,7.0,7.0,84,0.00,,,0.00,0,Wunderground v.1.15,2013-03-14 10:34:00,
2013-03-14 05:35:00,30.8,26.2,30.14,SSE,152,7.0,9.0,83,0.00,,,0.00,0,Wunderground v.1.15,2013-03-14 10:35:00,
2013-03-14 05:39:00,31.0,26.7,30.13,SSE,154,6.0,9.0,84,0.00,,,0.00,0,Wunderground v.1.15,2013-03-14 10:39:00,
2013-03-14 05:40:00,31.0,26.7,30.14,SE,146,7.0,7.0,84,0.00,,,0.00,0,Wunderground v.1.15,2013-03-14 10:40:00,
2013-03-14 05:44:00,31.2,26.9,30.13,SSE,153,5.0,8.0,84,0.00,,,0.00,0,Wunderground v.1.15,2013-03-14 10:44:00,
2013-03-14 05:45:00,31.2,26.9,30.13,SSE,153,5.0,8.0,84,0.00,,,0.00,0,Wunderground v.1.15,2013-03-14 10:45:00,
2013-03-14 05:46:00,31.2,26.9,30.13,SSE,153,4.0,8.0,84,0.00,,,0.00,0,Wunderground v.1.15,2013-03-14 10:46:00,
2013-03-14 05:49:00,31.3,27.0,30.13,SSE,155,5.0,8.0,84,0.00,,,0.00,0,Wunderground v.1.15,2013-03-14 10:49:00,
2013-03-14 05:51:00,31.4,27.1,30.13,SSE,157,7.0,8.0,84,0.00,,,0.00,0,Wunderground v.1.15,2013-03-14 10:51:00,
2013-03-14 05:57:00,31.4,27.1,30.12,SSE,153,6.0,9.0,84,0.00,,,0.00,0,Wunderground v.1.15,2013-03-14 10:57:00,
2013-03-14 05:59:00,31.4,27.1,30.12,SE,146,7.0,9.0,84,0.00,,,0.00,0,Wunderground v.1.15,2013-03-14 10:59:00,
2013-03-14 06:00:00,31.4,27.1,30.12,SE,142,7.0,7.0,84,0.00,,,0.00,0,Wunderground v.1.15,2013-03-14 11:00:00,
2013-03-14 06:02:00,31.4,27.1,30.12,SSE,154,6.0,9.0,84,0.00,,,0.00,0,Wunderground v.1.15,2013-03-14 11:02:00,
2013-03-14 06:04:00,31.3,27.0,30.11,SE,146,7.0,9.0,84,0.00,,,0.00,0,Wunderground v.1.15,2013-03-14 11:04:00,
2013-03-14 06:05:00,31.2,26.9,30.11,SE,143,8.0,9.0,84,0.00,,,0.00,0,Wunderground v.1.15,2013-03-14 11:05:00,
2013-03-14 06:07:00,31.2,26.9,30.11,SSE,148,8.0,9.0,84,0.00,,,0.00,0,Wunderground v.1.15,2013-03-14 11:07:00,
2013-03-14 06:11:00,31.1,26.8,30.12,SSE,157,7.0,7.0,84,0.00,,,0.00,0,Wunderground v.1.15,2013-03-14 11:11:00,
2013-03-14 06:12:00,31.1,26.8,30.11,SSE,154,5.0,7.0,84,0.00,,,0.00,0,Wunderground v.1.15,2013-03-14 11:12:00,
2013-03-14 06:14:00,31.1,26.8,30.11,SSE,158,5.0,8.0,84,0.00,,,0.00,0,Wunderground v.1.15,2013-03-14 11:14:00,
2013-03-14 06:17:00,31.3,27.0,30.11,SE,146,8.0,11.0,84,0.00,,,0.00,0,Wunderground v.1.15,2013-03-14 11:17:00,
2013-03-14 06:18:00,31.3,27.0,30.11,SSE,150,9.0,11.0,84,0.00,,,0.00,0,Wunderground v.1.15,2013-03-14 11:18:00,
2013-03-14 06:19:00,31.3,27.0,30.11,SSE,156,5.0,11.0,84,0.00,,,0.00,0,Wunderground v.1.15,2013-03-14 11:19:00,
2013-03-14 06:22:00,31.4,27.1,30.11,SSE,157,7.0,9.0,84,0.00,,,0.00,0,Wunderground v.1.15,2013-03-14 11:22:00,
2013-03-14 06:24:00,31.4,26.8,30.11,SSE,150,6.0,9.0,83,0.00,,,0.00,0,Wunderground v.1.15,2013-03-14 11:24:00,
2013-03-14 06:25:00,31.5,26.9,30.10,SSE,153,7.0,9.0,83,0.00,,,0.00,0,Wunderground v.1.15,2013-03-14 11:25:00,
2013-03-14 06:27:00,31.5,26.9,30.10,SSE,155,6.0,9.0,83,0.00,,,0.00,0,Wunderground v.1.15,2013-03-14 11:27:00,
2013-03-14 06:28:00,31.5,26.9,30.10,South,169,5.0,9.0,83,0.00,,,0.00,0,Wunderground v.1.15,2013-03-14 11:28:00,
2013-03-14 06:30:00,31.6,27.3,30.11,SSE,163,5.0,8.0,84,0.00,,,0.00,0,Wunderground v.1.15,2013-03-14 11:30:00,
2013-03-14 06:31:00,31.6,27.3,30.11,SSE,161,6.0,8.0,84,0.00,,,0.00,0,Wunderground v.1.15,2013-03-14 11:31:00,
2013-03-14 06:33:00,31.7,27.4,30.10,SSE,168,5.0,8.0,84,0.00,,,0.00,0,Wunderground v.1.15,2013-03-14 11:33:00,
2013-03-14 06:37:00,31.6,27.3,30.10,SSE,165,6.0,8.0,84,0.00,,,0.00,0,Wunderground v.1.15,2013-03-14 11:37:00,
2013-03-14 06:39:00,31.6,27.6,30.10,SSE,165,7.0,8.0,85,0.00,,,0.00,0,Wunderground v.1.15,2013-03-14 11:39:00,
2013-03-14 06:40:00,31.6,27.6,30.10,SSE,160,6.0,8.0,85,0.00,,,0.00,0,Wunderground v.1.15,2013-03-14 11:40:00,
2013-03-14 06:42:00,31.8,27.8,30.10,SSE,162,6.0,9.0,85,0.00,,,0.00,0,Wunderground v.1.15,2013-03-14 11:42:00,
2013-03-14 06:44:00,32.0,28.0,30.10,SSE,165,8.0,9.0,85,0.00,,,0.00,0,Wunderground v.1.15,2013-03-14 11:44:00,
2013-03-14 06:45:00,32.1,28.1,30.11,SSE,167,6.0,9.0,85,0.00,,,0.00,0,Wunderground v.1.15,2013-03-14 11:45:00,
2013-03-14 06:48:00,32.3,28.3,30.11,SSE,167,6.0,9.0,85,0.00,,,0.00,0,Wunderground v.1.15,2013-03-14 11:48:00,
2013-03-14 06:49:00,32.4,28.4,30.11,SSE,162,5.0,9.0,85,0.00,,,0.00,0,Wunderground v.1.15,2013-03-14 11:49:00,
2013-03-14 06:53:00,32.6,28.3,30.10,SSE,162,6.0,9.0,84,0.00,,,0.00,0,Wunderground v.1.15,2013-03-14 11:53:00,
2013-03-14 06:54:00,32.6,28.3,30.10,SSE,161,6.0,9.0,84,0.00,,,0.00,0,Wunderground v.1.15,2013-03-14 11:54:00,
2013-03-14 06:57:00,32.8,28.5,30.10,SSE,163,5.0,9.0,84,0.00,,,0.00,0,Wunderground v.1.15,2013-03-14 11:57:00,
2013-03-14 06:59:00,33.0,28.7,30.10,SSE,167,7.0,9.0,84,0.00,,,0.00,0,Wunderground v.1.15,2013-03-14 11:59:00,
2013-03-14 07:00:00,33.0,28.7,30.10,SSE,166,6.0,9.0,84,0.00,,,0.00,0,Wunderground v.1.15,2013-03-14 12:00:00,
2013-03-14 07:02:00,33.1,28.8,30.10,SSE,167,9.0,9.0,84,0.00,,,0.00,0,Wunderground v.1.15,2013-03-14 12:02:00,
2013-03-14 07:03:00,33.1,28.8,30.10,SSE,163,7.0,9.0,84,0.00,,,0.00,0,Wunderground v.1.15,2013-03-14 12:03:00,
2013-03-14 07:05:00,33.1,28.8,30.10,SSE,166,4.0,9.0,84,0.00,,,0.00,0,Wunderground v.1.15,2013-03-14 12:05:00,
2013-03-14 07:06:00,33.0,28.7,30.10,SSE,162,5.0,9.0,84,0.00,,,0.00,0,Wunderground v.1.15,2013-03-14 12:06:00,
2013-03-14 07:09:00,33.1,28.8,30.10,SSE,168,6.0,9.0,84,0.00,,,0.00,0,Wunderground v.1.15,2013-03-14 12:09:00,
2013-03-14 07:10:00,33.1,28.8,30.09,SSE,167,6.0,6.0,84,0.00,,,0.00,0,Wunderground v.1.15,2013-03-14 12:10:00,
2013-03-14 07:12:00,33.1,28.8,30.09,South,173,7.0,7.0,84,0.00,,,0.00,0,Wunderground v.1.15,2013-03-14 12:12:00,
2013-03-14 07:16:00,33.2,29.2,30.09,South,173,6.0,8.0,85,0.00,,,0.00,0,Wunderground v.1.15,2013-03-14 12:16:00,
2013-03-14 07:17:00,33.2,29.2,30.08,SSE,167,7.0,8.0,85,0.00,,,0.00,0,Wunderground v.1.15,2013-03-14 12:17:00,
2013-03-14 07:19:00,33.3,29.3,30.09,South,170,4.0,8.0,85,0.00,,,0.00,0,Wunderground v.1.15,2013-03-14 12:19:00,
2013-03-14 07:21:00,33.3,29.3,30.10,South,170,4.0,6.0,85,0.00,,,0.00,0,Wunderground v.1.15,2013-03-14 12:21:00,
2013-03-14 07:22:00,33.4,29.4,30.10,South,171,7.0,7.0,85,0.00,,,0.00,0,Wunderground v.1.15,2013-03-14 12:22:00,
2013-03-14 07:23:00,33.4,29.4,30.10,South,175,4.0,7.0,85,0.00,,,0.00,0,Wunderground v.1.15,2013-03-14 12:23:00,
2013-03-14 07:24:00,33.5,29.5,30.10,South,175,5.0,7.0,85,0.00,,,0.00,0,Wunderground v.1.15,2013-03-14 12:24:00,
2013-03-14 07:27:00,33.6,29.6,30.10,SSE,165,3.0,7.0,85,0.00,,,0.00,0,Wunderground v.1.15,2013-03-14 12:27:00,
2013-03-14 07:28:00,33.7,29.7,30.10,SSE,165,3.0,7.0,85,0.00,,,0.00,0,Wunderground v.1.15,2013-03-14 12:28:00,
2013-03-14 07:32:00,33.7,29.7,30.10,SSE,167,6.0,6.0,85,0.00,,,0.00,0,Wunderground v.1.15,2013-03-14 12:32:00,
2013-03-14 07:33:00,33.7,29.7,30.10,SSE,166,5.0,6.0,85,0.00,,,0.00,5,Wunderground v.1.15,2013-03-14 12:33:00,
2013-03-14 07:34:00,33.7,29.7,30.10,South,169,7.0,7.0,85,0.00,,,0.00,5,Wunderground v.1.15,2013-03-14 12:34:00,
2013-03-14 07:38:00,33.7,29.7,30.08,South,169,10.0,10.0,85,0.00,,,0.00,7,Wunderground v.1.15,2013-03-14 12:38:00,
2013-03-14 07:39:00,33.6,29.6,30.08,South,177,8.0,10.0,85,0.00,,,0.00,11,Wunderground v.1.15,2013-03-14 12:39:00,
2013-03-14 07:43:00,33.4,29.4,30.08,South,185,7.0,11.0,85,0.00,,,0.00,21,Wunderground v.1.15,2013-03-14 12:43:00,
2013-03-14 07:44:00,33.4,29.7,30.09,South,181,5.0,11.0,86,0.00,,,0.00,26,Wunderground v.1.15,2013-03-14 12:44:00,
2013-03-14 07:45:00,33.4,29.7,30.09,South,184,5.0,11.0,86,0.00,,,0.00,28,Wunderground v.1.15,2013-03-14 12:45:00,
2013-03-14 07:48:00,33.6,29.6,30.09,SSE,153,6.0,11.0,85,0.00,,,0.00,28,Wunderground v.1.15,2013-03-14 12:48:00,
2013-03-14 07:49:00,33.7,29.7,30.08,SSE,151,6.0,11.0,85,0.00,,,0.00,30,Wunderground v.1.15,2013-03-14 12:49:00,
2013-03-14 07:50:00,33.7,29.7,30.08,SSE,147,7.0,11.0,85,0.00,,,0.00,32,Wunderground v.1.15,2013-03-14 12:50:00,
2013-03-14 07:54:00,34.1,29.8,30.07,SSE,157,9.0,10.0,84,0.00,,,0.00,44,Wunderground v.1.15,2013-03-14 12:54:00,
2013-03-14 07:55:00,34.2,29.9,30.07,SSE,162,9.0,10.0,84,0.00,,,0.00,47,Wunderground v.1.15,2013-03-14 12:55:00,
2013-03-14 07:57:00,34.4,30.1,30.09,South,191,7.0,10.0,84,0.00,,,0.00,49,Wunderground v.1.15,2013-03-14 12:57:00,
2013-03-14 08:00:00,34.4,30.1,30.10,South,189,5.0,7.0,84,0.00,,,0.00,33,Wunderground v.1.15,2013-03-14 13:00:00,
2013-03-14 08:02:00,34.4,30.1,30.10,South,190,5.0,7.0,84,0.00,,,0.00,25,Wunderground v.1.15,2013-03-14 13:02:00,
2013-03-14 08:06:00,34.6,30.3,30.10,South,188,3.0,7.0,84,0.00,,,0.00,25,Wunderground v.1.15,2013-03-14 13:06:00,
2013-03-14 08:07:00,34.6,30.3,30.10,South,186,2.0,7.0,84,0.00,,,0.00,26,Wunderground v.1.15,2013-03-14 13:07:00,
2013-03-14 08:08:00,34.6,30.3,30.09,SSE,161,4.0,7.0,84,0.00,,,0.00,26,Wunderground v.1.15,2013-03-14 13:08:00,
2013-03-14 08:10:00,34.5,30.2,30.09,SSE,160,4.0,4.0,84,0.00,,,0.00,26,Wunderground v.1.15,2013-03-14 13:10:00,
2013-03-14 08:12:00,34.5,30.2,30.09,SSE,167,5.0,6.0,84,0.00,,,0.00,26,Wunderground v.1.15,2013-03-14 13:12:00,
2013-03-14 08:13:00,34.4,30.1,30.08,SSE,163,5.0,6.0,84,0.00,,,0.00,30,Wunderground v.1.15,2013-03-14 13:13:00,
2013-03-14 08:14:00,34.4,30.1,30.08,SSE,168,4.0,6.0,84,0.00,,,0.00,30,Wunderground v.1.15,2013-03-14 13:14:00,
2013-03-14 08:15:00,34.4,30.1,30.08,SSE,168,6.0,6.0,84,0.00,,,0.00,37,Wunderground v.1.15,2013-03-14 13:15:00,
2013-03-14 08:17:00,34.3,30.0,30.08,South,175,5.0,6.0,84,0.00,,,0.00,44,Wunderground v.1.15,2013-03-14 13:17:00,
2013-03-14 08:19:00,34.2,29.9,30.08,South,175,5.0,7.0,84,0.00,,,0.00,51,Wunderground v.1.15,2013-03-14 13:19:00,
2013-03-14 08:20:00,34.2,29.9,30.08,South,175,5.0,5.0,84,0.00,,,0.00,53,Wunderground v.1.15,2013-03-14 13:20:00,
2013-03-14 08:21:00,34.2,29.9,30.08,South,180,5.0,5.0,84,0.00,,,0.00,54,Wunderground v.1.15,2013-03-14 13:21:00,
2013-03-14 08:23:00,34.1,29.8,30.08,SSE,166,5.0,6.0,84,0.00,,,0.00,60,Wunderground v.1.15,2013-03-14 13:23:00,
2013-03-14 08:25:00,34.3,30.0,30.08,SSE,162,7.0,7.0,84,0.00,,,0.00,58,Wunderground v.1.15,2013-03-14 13:25:00,
2013-03-14 08:27:00,34.3,30.0,30.07,SSE,167,5.0,7.0,84,0.00,,,0.00,56,Wunderground v.1.15,2013-03-14 13:27:00,
2013-03-14 08:28:00,34.3,30.0,30.07,SSE,167,6.0,7.0,84,0.00,,,0.00,56,Wunderground v.1.15,2013-03-14 13:28:00,
2013-03-14 08:29:00,34.4,30.1,30.08,SSE,165,6.0,7.0,84,0.00,,,0.00,62,Wunderground v.1.15,2013-03-14 13:29:00,
2013-03-14 08:30:00,34.4,30.1,30.08,South,174,5.0,6.0,84,0.00,,,0.00,76,Wunderground v.1.15,2013-03-14 13:30:00,
2013-03-14 08:32:00,34.4,29.8,30.08,SSE,168,5.0,6.0,83,0.00,,,0.00,83,Wunderground v.1.15,2013-03-14 13:32:00,
2013-03-14 08:36:00,34.6,30.3,30.07,South,175,7.0,7.0,84,0.00,,,0.00,199,Wunderground v.1.15,2013-03-14 13:36:00,
2013-03-14 08:38:00,34.7,30.4,30.07,South,179,6.0,7.0,84,0.00,,,0.00,209,Wunderground v.1.15,2013-03-14 13:38:00,
2013-03-14 08:39:00,34.8,30.5,30.07,South,180,6.0,7.0,84,0.00,,,0.00,223,Wunderground v.1.15,2013-03-14 13:39:00,
2013-03-14 08:43:00,35.2,30.6,30.07,South,174,6.0,8.0,83,0.00,,,0.00,148,Wunderground v.1.15,2013-03-14 13:43:00,
2013-03-14 08:44:00,35.2,30.6,30.08,South,176,6.0,8.0,83,0.00,,,0.00,134,Wunderground v.1.15,2013-03-14 13:44:00,
2013-03-14 08:45:00,35.2,30.6,30.08,SSE,167,3.0,8.0,83,0.00,,,0.00,114,Wunderground v.1.15,2013-03-14 13:45:00,
2013-03-14 08:49:00,35.2,30.6,30.08,South,173,6.0,8.0,83,0.00,,,0.00,77,Wunderground v.1.15,2013-03-14 13:49:00,
2013-03-14 08:50:00,35.2,30.6,30.09,SSE,167,4.0,5.0,83,0.00,,,0.00,76,Wunderground v.1.15,2013-03-14 13:50:00,
2013-03-14 08:52:00,35.2,30.6,30.09,SSE,159,2.0,5.0,83,0.00,,,0.00,91,Wunderground v.1.15,2013-03-14 13:52:00,
2013-03-14 08:54:00,35.4,30.5,30.09,SSE,152,2.0,5.0,82,0.00,,,0.00,111,Wunderground v.1.15,2013-03-14 13:54:00,
2013-03-14 08:55:00,35.6,30.3,30.09,SE,142,3.0,5.0,81,0.00,,,0.00,123,Wunderground v.1.15,2013-03-14 13:55:00,
2013-03-14 08:57:00,35.9,30.3,30.09,SE,132,5.0,6.0,80,0.00,,,0.00,127,Wunderground v.1.15,2013-03-14 13:57:00,
2013-03-14 08:58:00,36.0,30.1,30.08,SE,138,5.0,6.0,79,0.00,,,0.00,132,Wunderground v.1.15,2013-03-14 13:58:00,
2013-03-14 08:59:00,36.1,30.2,30.08,SE,142,4.0,7.0,79,0.00,,,0.00,156,Wunderground v.1.15,2013-03-14 13:59:00,
2013-03-14 09:01:00,36.1,30.2,30.08,SSE,148,6.0,7.0,79,0.00,,,0.00,246,Wunderground v.1.15,2013-03-14 14:01:00,
2013-03-14 09:03:00,36.2,30.6,30.08,South,171,6.0,7.0,80,0.00,,,0.00,308,Wunderground v.1.15,2013-03-14 14:03:00,
2013-03-14 09:05:00,36.2,30.6,30.07,South,176,6.0,9.0,80,0.00,,,0.00,278,Wunderground v.1.15,2013-03-14 14:05:00,
2013-03-14 09:06:00,36.2,30.6,30.07,South,173,7.0,9.0,80,0.00,,,0.00,306,Wunderground v.1.15,2013-03-14 14:06:00,
2013-03-14 09:07:00,36.2,30.9,30.07,South,182,5.0,9.0,81,0.00,,,0.00,306,Wunderground v.1.15,2013-03-14 14:07:00,
2013-03-14 09:09:00,36.3,30.7,30.07,South,173,9.0,9.0,80,0.00,,,0.00,246,Wunderground v.1.15,2013-03-14 14:09:00,
2013-03-14 09:11:00,36.4,30.5,30.07,South,175,7.0,9.0,79,0.00,,,0.00,183,Wunderground v.1.15,2013-03-14 14:11:00,
2013-03-14 09:12:00,36.5,30.6,30.07,SSE,168,6.0,9.0,79,0.00,,,0.00,156,Wunderground v.1.15,2013-03-14 14:12:00,
2013-03-14 09:14:00,36.5,30.9,30.07,SSE,167,4.0,9.0,80,0.00,,,0.00,301,Wunderground v.1.15,2013-03-14 14:14:00,
2013-03-14 09:17:00,36.5,30.9,30.08,SSE,160,6.0,9.0,80,0.00,,,0.00,299,Wunderground v.1.15,2013-03-14 14:17:00,
2013-03-14 09:18:00,36.5,30.9,30.08,SSE,165,5.0,9.0,80,0.00,,,0.00,86,Wunderground v.1.15,2013-03-14 14:18:00,
2013-03-14 09:20:00,36.5,30.6,30.08,SSE,163,4.0,5.0,79,0.00,,,0.00,316,Wunderground v.1.15,2013-03-14 14:20:00,
2013-03-14 09:23:00,36.7,30.8,30.08,South,184,7.0,7.0,79,0.00,,,0.00,343,Wunderground v.1.15,2013-03-14 14:23:00,
2013-03-14 09:26:00,36.7,30.8,30.08,South,178,5.0,7.0,79,0.00,,,0.00,359,Wunderground v.1.15,2013-03-14 14:26:00,
2013-03-14 09:28:00,36.8,30.9,30.08,South,179,7.0,7.0,79,0.00,,,0.00,362,Wunderground v.1.15,2013-03-14 14:28:00,
2013-03-14 09:29:00,36.8,30.9,30.08,South,188,7.0,7.0,79,0.00,,,0.00,362,Wunderground v.1.15,2013-03-14 14:29:00,
2013-03-14 09:30:00,36.8,31.2,30.07,South,188,8.0,8.0,80,0.00,,,0.00,367,Wunderground v.1.15,2013-03-14 14:30:00,
2013-03-14 09:31:00,36.8,31.2,30.07,South,180,7.0,8.0,80,0.00,,,0.00,367,Wunderground v.1.15,2013-03-14 14:31:00,
2013-03-14 09:34:00,36.8,31.2,30.07,South,182,6.0,8.0,80,0.00,,,0.00,364,Wunderground v.1.15,2013-03-14 14:34:00,
2013-03-14 09:35:00,36.8,30.9,30.07,South,180,6.0,8.0,79,0.00,,,0.00,362,Wunderground v.1.15,2013-03-14 14:35:00,
2013-03-14 09:37:00,36.8,30.9,30.07,South,180,7.0,8.0,79,0.00,,,0.00,362,Wunderground v.1.15,2013-03-14 14:37:00,
2013-03-14 09:39:00,36.7,30.8,30.08,South,171,4.0,8.0,79,0.00,,,0.00,105,Wunderground v.1.15,2013-03-14 14:39:00,
2013-03-14 09:40:00,36.6,31.0,30.08,SSE,168,5.0,6.0,80,0.00,,,0.00,327,Wunderground v.1.15,2013-03-14 14:40:00,
2013-03-14 09:41:00,36.6,31.0,30.08,South,176,6.0,6.0,80,0.00,,,0.00,371,Wunderground v.1.15,2013-03-14 14:41:00,
2013-03-14 09:42:00,36.6,31.0,30.08,South,184,3.0,6.0,80,0.00,,,0.00,371,Wunderground v.1.15,2013-03-14 14:42:00,
2013-03-14 09:45:00,36.7,31.1,30.08,South,185,4.0,6.0,80,0.00,,,0.00,378,Wunderground v.1.15,2013-03-14 14:45:00,
2013-03-14 09:46:00,36.6,31.0,30.08,South,188,5.0,6.0,80,0.00,,,0.00,381,Wunderground v.1.15,2013-03-14 14:46:00,
2013-03-14 09:47:00,36.7,31.4,30.08,South,184,4.0,6.0,81,0.00,,,0.00,387,Wunderground v.1.15,2013-03-14 14:47:00,
2013-03-14 09:50:00,36.8,31.5,30.08,SSW,195,4.0,4.0,81,0.00,,,0.00,396,Wunderground v.1.15,2013-03-14 14:50:00,
2013-03-14 09:51:00,36.8,31.2,30.08,SSW,195,4.0,4.0,80,0.00,,,0.00,401,Wunderground v.1.15,2013-03-14 14:51:00,
2013-03-14 09:52:00,36.9,31.3,30.09,SSW,201,4.0,4.0,80,0.00,,,0.00,403,Wunderground v.1.15,2013-03-14 14:52:00,
2013-03-14 09:54:00,37.0,31.4,30.08,SSW,193,5.0,5.0,80,0.00,,,0.00,418,Wunderground v.1.15,2013-03-14 14:54:00,
2013-03-14 09:56:00,36.9,31.6,30.08,South,191,6.0,6.0,81,0.00,,,0.00,422,Wunderground v.1.15,2013-03-14 14:56:00,
2013-03-14 09:59:00,36.9,31.6,30.09,SSW,199,3.0,6.0,81,0.00,,,0.00,427,Wunderground v.1.15,2013-03-14 14:59:00,
2013-03-14 10:00:00,37.0,31.4,30.09,SSW,199,2.0,4.0,80,0.00,,,0.00,427,Wunderground v.1.15,2013-03-14 15:00:00,
2013-03-14 10:01:00,37.0,31.4,30.09,SSW,199,3.0,4.0,80,0.00,,,0.00,429,Wunderground v.1.15,2013-03-14 15:01:00,
2013-03-14 10:02:00,37.1,31.8,30.08,South,187,3.0,4.0,81,0.00,,,0.00,432,Wunderground v.1.15,2013-03-14 15:02:00,
2013-03-14 10:06:00,37.1,31.8,30.08,South,186,3.0,4.0,81,0.00,,,0.00,443,Wunderground v.1.15,2013-03-14 15:06:00,
2013-03-14 10:07:00,37.1,31.8,30.08,South,186,3.0,4.0,81,0.00,,,0.00,446,Wunderground v.1.15,2013-03-14 15:07:00,
2013-03-14 10:08:00,37.1,31.8,30.08,South,179,1.0,4.0,81,0.00,,,0.00,452,Wunderground v.1.15,2013-03-14 15:08:00,
2013-03-14 10:11:00,37.2,31.9,30.08,South,190,4.0,5.0,81,0.00,,,0.00,462,Wunderground v.1.15,2013-03-14 15:11:00,
2013-03-14 10:12:00,37.2,31.9,30.08,South,190,2.0,5.0,81,0.00,,,0.00,462,Wunderground v.1.15,2013-03-14 15:12:00,
2013-03-14 10:14:00,37.3,32.3,30.09,SSW,202,4.0,5.0,82,0.00,,,0.00,466,Wunderground v.1.15,2013-03-14 15:14:00,
2013-03-14 10:16:00,37.4,32.1,30.09,SSW,202,5.0,5.0,81,0.00,,,0.00,473,Wunderground v.1.15,2013-03-14 15:16:00,
2013-03-14 10:17:00,37.5,32.2,30.09,SSW,208,4.0,5.0,81,0.00,,,0.00,476,Wunderground v.1.15,2013-03-14 15:17:00,
2013-03-14 10:19:00,37.5,32.2,30.09,SSW,208,3.0,5.0,81,0.00,,,0.00,480,Wunderground v.1.15,2013-03-14 15:19:00,
2013-03-14 10:22:00,37.6,32.3,30.09,SSW,210,5.0,5.0,81,0.00,,,0.00,492,Wunderground v.1.15,2013-03-14 15:22:00,
2013-03-14 10:24:00,37.7,32.1,30.09,SSW,209,2.0,5.0,80,0.00,,,0.00,496,Wunderground v.1.15,2013-03-14 15:24:00,
2013-03-14 10:25:00,37.8,32.2,30.09,SSW,209,3.0,5.0,80,0.00,,,0.00,499,Wunderground v.1.15,2013-03-14 15:25:00,
2013-03-14 10:28:00,37.9,32.3,30.10,SSW,209,0.0,5.0,80,0.00,,,0.00,504,Wunderground v.1.15,2013-03-14 15:28:00,
2013-03-14 10:29:00,38.0,32.4,30.10,SSW,209,0.0,5.0,80,0.00,,,0.00,512,Wunderground v.1.15,2013-03-14 15:29:00,
2013-03-14 10:30:00,38.0,32.4,30.10,SSW,209,0.0,2.0,80,0.00,,,0.00,512,Wunderground v.1.15,2013-03-14 15:30:00,
2013-03-14 10:31:00,38.2,32.6,30.10,SSW,209,0.0,2.0,80,0.00,,,0.00,519,Wunderground v.1.15,2013-03-14 15:31:00,
2013-03-14 10:33:00,38.4,32.8,30.10,SSW,209,0.0,2.0,80,0.00,,,0.00,524,Wunderground v.1.15,2013-03-14 15:33:00,
2013-03-14 10:34:00,38.4,32.8,30.10,SSW,209,0.0,2.0,80,0.00,,,0.00,529,Wunderground v.1.15,2013-03-14 15:34:00,
2013-03-14 10:35:00,38.5,32.9,30.10,SSW,209,0.0,2.0,80,0.00,,,0.00,531,Wunderground v.1.15,2013-03-14 15:35:00,
2013-03-14 10:38:00,38.6,33.0,30.10,SSW,209,0.0,2.0,80,0.00,,,0.00,533,Wunderground v.1.15,2013-03-14 15:38:00,
2013-03-14 10:39:00,38.6,33.0,30.10,SSW,209,0.0,2.0,80,0.00,,,0.00,543,Wunderground v.1.15,2013-03-14 15:39:00,
2013-03-14 10:43:00,38.7,33.1,30.10,SSW,209,1.0,2.0,80,0.00,,,0.00,550,Wunderground v.1.15,2013-03-14 15:43:00,
2013-03-14 10:44:00,38.6,33.0,30.10,SSW,209,0.0,2.0,80,0.00,,,0.00,554,Wunderground v.1.15,2013-03-14 15:44:00,
2013-03-14 10:45:00,38.6,33.0,30.09,SSW,209,0.0,2.0,80,0.00,,,0.00,555,Wunderground v.1.15,2013-03-14 15:45:00,
2013-03-14 10:48:00,38.2,33.2,30.09,SSW,209,0.0,2.0,82,0.00,,,0.00,564,Wunderground v.1.15,2013-03-14 15:48:00,
2013-03-14 10:49:00,38.2,33.2,30.09,SSW,209,0.0,2.0,82,0.00,,,0.00,568,Wunderground v.1.15,2013-03-14 15:49:00,
2013-03-14 10:50:00,38.2,33.2,30.09,SSW,209,0.0,0.0,82,0.00,,,0.00,570,Wunderground v.1.15,2013-03-14 15:50:00,
2013-03-14 10:54:00,38.6,33.3,30.09,SSW,209,3.0,3.0,81,0.00,,,0.00,580,Wunderground v.1.15,2013-03-14 15:54:00,
2013-03-14 10:55:00,38.6,33.0,30.09,SSW,209,0.0,3.0,80,0.00,,,0.00,584,Wunderground v.1.15,2013-03-14 15:55:00,
2013-03-14 10:57:00,38.4,33.1,30.09,SSW,209,0.0,3.0,81,0.00,,,0.00,587,Wunderground v.1.15,2013-03-14 15:57:00,
2013-03-14 10:58:00,38.4,33.1,30.09,SSW,209,0.0,3.0,81,0.00,,,0.00,589,Wunderground v.1.15,2013-03-14 15:58:00,
2013-03-14 10:59:00,38.4,33.1,30.09,SSW,209,0.0,3.0,81,0.00,,,0.00,594,Wunderground v.1.15,2013-03-14 15:59:00,
2013-03-14 11:00:00,38.6,33.3,30.09,SSW,209,2.0,2.0,81,0.00,,,0.00,596,Wunderground v.1.15,2013-03-14 16:00:00,
2013-03-14 11:04:00,38.6,33.6,30.09,SSW,209,0.0,2.0,82,0.00,,,0.00,605,Wunderground v.1.15,2013-03-14 16:04:00,
2013-03-14 11:05:00,38.7,33.4,30.09,SSW,209,2.0,2.0,81,0.00,,,0.00,608,Wunderground v.1.15,2013-03-14 16:05:00,
2013-03-14 11:06:00,38.8,33.5,30.09,SSW,209,2.0,2.0,81,0.00,,,0.00,610,Wunderground v.1.15,2013-03-14 16:06:00,
2013-03-14 11:09:00,38.9,33.6,30.09,SSW,209,0.0,2.0,81,0.00,,,0.00,619,Wunderground v.1.15,2013-03-14 16:09:00,
2013-03-14 11:12:00,39.0,33.4,30.09,SSW,209,0.0,1.0,80,0.00,,,0.00,624,Wunderground v.1.15,2013-03-14 16:12:00,
2013-03-14 11:14:00,39.0,33.4,30.09,SSW,209,1.0,3.0,80,0.00,,,0.00,631,Wunderground v.1.15,2013-03-14 16:14:00,
2013-03-14 11:15:00,39.0,33.0,30.09,SSW,209,2.0,3.0,79,0.00,,,0.00,633,Wunderground v.1.15,2013-03-14 16:15:00,
2013-03-14 11:17:00,39.1,33.5,30.08,SSW,206,2.0,3.0,80,0.00,,,0.00,640,Wunderground v.1.15,2013-03-14 16:17:00,
2013-03-14 11:20:00,39.1,33.1,30.08,SSW,206,1.0,3.0,79,0.00,,,0.00,643,Wunderground v.1.15,2013-03-14 16:20:00,
2013-03-14 11:21:00,39.1,33.5,30.08,SSW,206,1.0,2.0,80,0.00,,,0.00,647,Wunderground v.1.15,2013-03-14 16:21:00,
2013-03-14 11:22:00,39.1,33.5,30.08,SSW,206,1.0,2.0,80,0.00,,,0.00,649,Wunderground v.1.15,2013-03-14 16:22:00,
2013-03-14 11:24:00,39.2,33.5,30.08,SSW,206,0.0,2.0,80,0.00,,,0.00,650,Wunderground v.1.15,2013-03-14 16:24:00,
2013-03-14 11:25:00,39.2,33.5,30.09,SSW,206,0.0,2.0,80,0.00,,,0.00,656,Wunderground v.1.15,2013-03-14 16:25:00,
2013-03-14 11:26:00,39.2,33.9,30.09,SSW,206,0.0,2.0,81,0.00,,,0.00,656,Wunderground v.1.15,2013-03-14 16:26:00,
2013-03-14 11:28:00,39.5,34.2,30.08,SSW,206,2.0,2.0,81,0.00,,,0.00,661,Wunderground v.1.15,2013-03-14 16:28:00,
2013-03-14 11:30:00,39.6,33.9,30.08,SSW,206,0.0,2.0,80,0.00,,,0.00,666,Wunderground v.1.15,2013-03-14 16:30:00,
2013-03-14 11:33:00,39.7,34.3,30.08,SSW,206,0.0,2.0,81,0.00,,,0.00,675,Wunderground v.1.15,2013-03-14 16:33:00,
2013-03-14 11:34:00,39.7,34.3,30.08,SSW,206,0.0,2.0,81,0.00,,,0.00,675,Wunderground v.1.15,2013-03-14 16:34:00,
2013-03-14 11:36:00,39.8,34.4,30.08,SSW,206,2.0,3.0,81,0.00,,,0.00,679,Wunderground v.1.15,2013-03-14 16:36:00,
2013-03-14 11:37:00,39.8,34.4,30.08,SSW,206,2.0,3.0,81,0.00,,,0.00,680,Wunderground v.1.15,2013-03-14 16:37:00,
2013-03-14 11:38:00,39.7,34.0,30.08,SSW,206,2.0,3.0,80,0.00,,,0.00,682,Wunderground v.1.15,2013-03-14 16:38:00,
2013-03-14 11:40:00,39.8,33.8,30.08,SSW,198,4.0,4.0,79,0.00,,,0.00,686,Wunderground v.1.15,2013-03-14 16:40:00,
2013-03-14 11:43:00,39.9,33.6,30.08,SSW,198,2.0,3.0,78,0.00,,,0.00,691,Wunderground v.1.15,2013-03-14 16:43:00,
2013-03-14 11:44:00,40.0,34.0,30.08,SSW,198,0.0,3.0,79,0.00,,,0.00,694,Wunderground v.1.15,2013-03-14 16:44:00,
2013-03-14 11:45:00,40.1,34.4,30.08,SSW,198,2.0,3.0,80,0.00,,,0.00,696,Wunderground v.1.15,2013-03-14 16:45:00,
2013-03-14 11:49:00,40.2,34.2,30.08,SSW,202,1.0,4.0,79,0.00,,,0.00,705,Wunderground v.1.15,2013-03-14 16:49:00,
2013-03-14 11:50:00,40.2,34.2,30.08,SSW,202,1.0,4.0,79,0.00,,,0.00,705,Wunderground v.1.15,2013-03-14 16:50:00,
2013-03-14 11:51:00,40.2,34.2,30.08,SSW,202,2.0,2.0,79,0.00,,,0.00,707,Wunderground v.1.15,2013-03-14 16:51:00,
2013-03-14 11:54:00,40.1,34.1,30.07,SSW,202,3.0,3.0,79,0.00,,,0.00,710,Wunderground v.1.15,2013-03-14 16:54:00,
2013-03-14 11:56:00,40.0,34.3,30.07,SSW,202,3.0,3.0,80,0.00,,,0.00,714,Wunderground v.1.15,2013-03-14 16:56:00,
2013-03-14 11:57:00,40.0,34.3,30.07,SSW,202,4.0,4.0,80,0.00,,,0.00,715,Wunderground v.1.15,2013-03-14 16:57:00,
2013-03-14 12:02:00,40.4,35.0,30.07,SSW,211,2.0,3.0,81,0.00,,,0.00,714,Wunderground v.1.15,2013-03-14 17:02:00,
2013-03-14 12:05:00,40.6,34.6,30.07,SW,215,2.0,4.0,79,0.00,,,0.00,710,Wunderground v.1.15,2013-03-14 17:05:00,
2013-03-14 12:07:00,40.8,34.8,30.07,SW,215,4.0,4.0,79,0.00,,,0.00,729,Wunderground v.1.15,2013-03-14 17:07:00,
2013-03-14 12:08:00,40.9,34.6,30.07,SW,215,2.0,4.0,78,0.00,,,0.00,731,Wunderground v.1.15,2013-03-14 17:08:00,
2013-03-14 12:11:00,40.9,34.6,30.07,SW,215,3.0,3.0,78,0.00,,,0.00,737,Wunderground v.1.15,2013-03-14 17:11:00,
2013-03-14 12:13:00,41.0,35.0,30.07,SW,216,3.0,4.0,79,0.00,,,0.00,740,Wunderground v.1.15,2013-03-14 17:13:00,
2013-03-14 12:14:00,41.0,35.0,30.07,SW,216,4.0,4.0,79,0.00,,,0.00,728,Wunderground v.1.15,2013-03-14 17:14:00,
2013-03-14 12:15:00,41.0,35.0,30.07,SW,216,1.0,4.0,79,0.00,,,0.00,729,Wunderground v.1.15,2013-03-14 17:15:00,
2013-03-14 12:17:00,41.2,35.5,30.07,SW,216,2.0,4.0,80,0.00,,,0.00,745,Wunderground v.1.15,2013-03-14 17:17:00,
2013-03-14 12:18:00,41.2,35.5,30.07,SW,216,2.0,4.0,80,0.00,,,0.00,744,Wunderground v.1.15,2013-03-14 17:18:00,
2013-03-14 12:21:00,41.3,35.3,30.07,SW,216,3.0,3.0,79,0.00,,,0.00,745,Wunderground v.1.15,2013-03-14 17:21:00,
2013-03-14 12:23:00,41.5,35.5,30.07,SW,216,2.0,3.0,79,0.00,,,0.00,752,Wunderground v.1.15,2013-03-14 17:23:00,
2013-03-14 12:25:00,41.7,35.7,30.07,SW,217,3.0,3.0,79,0.00,,,0.00,756,Wunderground v.1.15,2013-03-14 17:25:00,
2013-03-14 12:27:00,41.8,35.8,30.07,SW,220,3.0,4.0,79,0.00,,,0.00,758,Wunderground v.1.15,2013-03-14 17:27:00,
2013-03-14 12:28:00,41.8,35.8,30.07,SW,220,3.0,4.0,79,0.00,,,0.00,759,Wunderground v.1.15,2013-03-14 17:28:00,
2013-03-14 12:29:00,41.9,35.9,30.07,SW,220,2.0,4.0,79,0.00,,,0.00,759,Wunderground v.1.15,2013-03-14 17:29:00,
2013-03-14 12:31:00,42.0,36.0,30.07,SW,220,3.0,3.0,79,0.00,,,0.00,763,Wunderground v.1.15,2013-03-14 17:31:00,
2013-03-14 12:33:00,42.1,35.7,30.07,SW,221,3.0,4.0,78,0.00,,,0.00,763,Wunderground v.1.15,2013-03-14 17:33:00,
2013-03-14 12:34:00,42.1,35.7,30.07,SW,221,3.0,4.0,78,0.00,,,0.00,765,Wunderground v.1.15,2013-03-14 17:34:00,
2013-03-14 12:38:00,42.2,35.8,30.07,SW,221,2.0,4.0,78,0.00,,,0.00,766,Wunderground v.1.15,2013-03-14 17:38:00,
2013-03-14 12:40:00,42.3,36.3,30.07,SW,221,2.0,3.0,79,0.00,,,0.00,770,Wunderground v.1.15,2013-03-14 17:40:00,
2013-03-14 12:41:00,42.4,36.0,30.07,SW,221,2.0,3.0,78,0.00,,,0.00,770,Wunderground v.1.15,2013-03-14 17:41:00,
2013-03-14 12:44:00,42.5,36.8,30.07,SW,221,1.0,3.0,80,0.00,,,0.00,772,Wunderground v.1.15,2013-03-14 17:44:00,
2013-03-14 12:47:00,42.5,36.4,30.07,SW,221,2.0,3.0,79,0.00,,,0.00,773,Wunderground v.1.15,2013-03-14 17:47:00,
2013-03-14 12:49:00,42.6,36.5,30.07,SW,221,1.0,3.0,79,0.00,,,0.00,777,Wunderground v.1.15,2013-03-14 17:49:00,
2013-03-14 12:52:00,42.7,36.3,30.07,SW,221,0.0,2.0,78,0.00,,,0.00,779,Wunderground v.1.15,2013-03-14 17:52:00,
2013-03-14 12:53:00,42.7,36.3,30.07,SW,221,0.0,2.0,78,0.00,,,0.00,779,Wunderground v.1.15,2013-03-14 17:53:00,
2013-03-14 12:55:00,42.9,36.5,30.07,SW,221,2.0,2.0,78,0.00,,,0.00,780,Wunderground v.1.15,2013-03-14 17:55:00,
2013-03-14 12:58:00,43.0,36.9,30.07,SW,226,2.0,3.0,79,0.00,,,0.00,782,Wunderground v.1.15,2013-03-14 17:58:00,
2013-03-14 13:01:00,43.1,37.0,30.07,SW,231,2.0,2.0,79,0.00,,,0.00,784,Wunderground v.1.15,2013-03-14 18:01:00,
2013-03-14 13:02:00,43.1,36.7,30.07,SW,232,3.0,3.0,78,0.00,,,0.00,784,Wunderground v.1.15,2013-03-14 18:02:00,
2013-03-14 13:03:00,43.1,36.7,30.07,WSW,254,3.0,4.0,78,0.00,,,0.00,784,Wunderground v.1.15,2013-03-14 18:03:00,
2013-03-14 13:05:00,43.1,36.7,30.07,WSW,255,2.0,4.0,78,0.00,,,0.00,786,Wunderground v.1.15,2013-03-14 18:05:00,
2013-03-14 13:07:00,43.1,36.7,30.07,WSW,248,4.0,5.0,78,0.00,,,0.00,788,Wunderground v.1.15,2013-03-14 18:07:00,
2013-03-14 13:08:00,43.1,37.0,30.07,West,261,4.0,5.0,79,0.00,,,0.00,786,Wunderground v.1.15,2013-03-14 18:08:00,
2013-03-14 13:10:00,43.0,36.9,30.07,West,267,3.0,5.0,79,0.00,,,0.00,788,Wunderground v.1.15,2013-03-14 18:10:00,
2013-03-14 13:13:00,42.8,37.1,30.07,West,267,3.0,4.0,80,0.00,,,0.00,786,Wunderground v.1.15,2013-03-14 18:13:00,
2013-03-14 13:14:00,42.8,37.4,30.07,West,277,5.0,5.0,81,0.00,,,0.00,791,Wunderground v.1.15,2013-03-14 18:14:00,
2013-03-14 13:15:00,42.8,37.7,30.07,West,279,5.0,6.0,82,0.00,,,0.00,791,Wunderground v.1.15,2013-03-14 18:15:00,
2013-03-14 13:19:00,43.2,37.1,30.08,WNW,283,5.0,8.0,79,0.00,,,0.00,800,Wunderground v.1.15,2013-03-14 18:19:00,
2013-03-14 13:20:00,43.3,37.5,30.08,WNW,291,5.0,6.0,80,0.00,,,0.00,798,Wunderground v.1.15,2013-03-14 18:20:00,
2013-03-14 13:21:00,43.3,37.5,30.08,WNW,292,6.0,6.0,80,0.00,,,0.00,798,Wunderground v.1.15,2013-03-14 18:21:00,
2013-03-14 13:22:00,43.3,37.9,30.08,WNW,288,6.0,6.0,81,0.00,,,0.00,798,Wunderground v.1.15,2013-03-14 18:22:00,
2013-03-14 13:26:00,43.3,37.5,30.08,WNW,292,6.0,9.0,80,0.00,,,0.00,805,Wunderground v.1.15,2013-03-14 18:26:00,
2013-03-14 13:27:00,43.3,37.9,30.08,WNW,292,7.0,9.0,81,0.00,,,0.00,819,Wunderground v.1.15,2013-03-14 18:27:00,
2013-03-14 13:28:00,43.3,37.9,30.08,WNW,288,6.0,9.0,81,0.00,,,0.00,802,Wunderground v.1.15,2013-03-14 18:28:00,
2013-03-14 13:31:00,43.3,37.2,30.07,WNW,285,6.0,7.0,79,0.00,,,0.00,810,Wunderground v.1.15,2013-03-14 18:31:00,
2013-03-14 13:32:00,43.3,37.5,30.07,WNW,284,6.0,7.0,80,0.00,,,0.00,810,Wunderground v.1.15,2013-03-14 18:32:00,
2013-03-14 13:33:00,43.2,37.4,30.07,WNW,282,6.0,7.0,80,0.00,,,0.00,728,Wunderground v.1.15,2013-03-14 18:33:00,
2013-03-14 13:35:00,43.2,37.4,30.07,West,281,7.0,7.0,80,0.00,,,0.00,765,Wunderground v.1.15,2013-03-14 18:35:00,
2013-03-14 13:36:00,43.3,37.2,30.07,WNW,291,5.0,7.0,79,0.00,,,0.00,789,Wunderground v.1.15,2013-03-14 18:36:00,
2013-03-14 13:37:00,43.3,37.5,30.07,WNW,287,6.0,7.0,80,0.00,,,0.00,803,Wunderground v.1.15,2013-03-14 18:37:00,
2013-03-14 13:40:00,43.4,38.3,30.07,WNW,290,8.0,8.0,82,0.00,,,0.00,819,Wunderground v.1.15,2013-03-14 18:40:00,
2013-03-14 13:42:00,43.5,38.1,30.08,WNW,288,6.0,9.0,81,0.00,,,0.00,830,Wunderground v.1.15,2013-03-14 18:42:00,
2013-03-14 13:43:00,43.6,37.8,30.08,WNW,288,7.0,9.0,80,0.00,,,0.00,798,Wunderground v.1.15,2013-03-14 18:43:00,
2013-03-14 13:44:00,43.6,38.2,30.08,WNW,293,7.0,9.0,81,0.00,,,0.00,782,Wunderground v.1.15,2013-03-14 18:44:00,
2013-03-14 13:45:00,43.6,38.2,30.08,WNW,284,8.0,9.0,81,0.00,,,0.00,793,Wunderground v.1.15,2013-03-14 18:45:00,
2013-03-14 13:48:00,43.6,37.8,30.08,WNW,286,8.0,10.0,80,0.00,,,0.00,729,Wunderground v.1.15,2013-03-14 18:48:00,
2013-03-14 13:49:00,43.6,38.2,30.08,WNW,294,7.0,10.0,81,0.00,,,0.00,773,Wunderground v.1.15,2013-03-14 18:49:00,
2013-03-14 13:50:00,43.6,38.5,30.08,WNW,295,6.0,7.0,82,0.00,,,0.00,729,Wunderground v.1.15,2013-03-14 18:50:00,
2013-03-14 13:51:00,43.6,38.2,30.08,NW,311,8.0,9.0,81,0.00,,,0.00,765,Wunderground v.1.15,2013-03-14 18:51:00,
2013-03-14 13:53:00,43.6,37.8,30.08,WNW,298,8.0,9.0,80,0.00,,,0.00,733,Wunderground v.1.15,2013-03-14 18:53:00,
2013-03-14 13:54:00,43.6,37.8,30.08,WNW,296,6.0,9.0,80,0.00,,,0.00,735,Wunderground v.1.15,2013-03-14 18:54:00,
2013-03-14 13:57:00,43.5,38.4,30.08,WNW,291,7.0,9.0,82,0.00,,,0.00,698,Wunderground v.1.15,2013-03-14 18:57:00,
2013-03-14 13:58:00,43.4,38.0,30.08,WNW,289,8.0,9.0,81,0.00,,,0.00,751,Wunderground v.1.15,2013-03-14 18:58:00,
2013-03-14 14:00:00,43.5,37.7,30.08,WNW,292,9.0,9.0,80,0.00,,,0.00,731,Wunderground v.1.15,2013-03-14 19:00:00,
2013-03-14 14:02:00,43.6,37.8,30.08,WNW,298,8.0,9.0,80,0.00,,,0.00,721,Wunderground v.1.15,2013-03-14 19:02:00,
2013-03-14 14:04:00,43.6,37.5,30.08,WNW,293,9.0,10.0,79,0.00,,,0.00,780,Wunderground v.1.15,2013-03-14 19:04:00,
2013-03-14 14:06:00,43.6,37.5,30.08,WNW,288,9.0,11.0,79,0.00,,,0.00,772,Wunderground v.1.15,2013-03-14 19:06:00,
2013-03-14 14:08:00,43.7,38.3,30.08,WNW,296,7.0,11.0,81,0.00,,,0.00,780,Wunderground v.1.15,2013-03-14 19:08:00,
2013-03-14 14:09:00,43.6,38.2,30.08,WNW,301,10.0,11.0,81,0.00,,,0.00,777,Wunderground v.1.15,2013-03-14 19:09:00,
2013-03-14 14:10:00,43.6,38.2,30.08,NW,304,9.0,11.0,81,0.00,,,0.00,754,Wunderground v.1.15,2013-03-14 19:10:00,
2013-03-14 14:14:00,43.6,37.8,30.08,WNW,299,10.0,12.0,80,0.00,,,0.00,729,Wunderground v.1.15,2013-03-14 19:14:00,
2013-03-14 14:15:00,43.6,37.5,30.08,NW,309,10.0,12.0,79,0.00,,,0.00,691,Wunderground v.1.15,2013-03-14 19:15:00,
2013-03-14 14:16:00,43.6,37.2,30.08,WNW,298,11.0,12.0,78,0.00,,,0.00,691,Wunderground v.1.15,2013-03-14 19:16:00,
2013-03-14 14:19:00,43.5,37.4,30.08,NW,304,11.0,12.0,79,0.00,,,0.00,596,Wunderground v.1.15,2013-03-14 19:19:00,
2013-03-14 14:20:00,43.5,37.4,30.08,WNW,296,11.0,12.0,79,0.00,,,0.00,675,Wunderground v.1.15,2013-03-14 19:20:00,
2013-03-14 14:21:00,43.4,37.3,30.08,WNW,301,9.0,10.0,79,0.00,,,0.00,664,Wunderground v.1.15,2013-03-14 19:21:00,
2013-03-14 14:22:00,43.4,37.3,30.08,WNW,297,9.0,10.0,79,0.00,,,0.00,631,Wunderground v.1.15,2013-03-14 19:22:00,
2013-03-14 14:25:00,43.4,37.3,30.08,WNW,291,11.0,11.0,79,0.00,,,0.00,694,Wunderground v.1.15,2013-03-14 19:25:00,
2013-03-14 14:28:00,43.4,37.6,30.08,WNW,293,8.0,11.0,80,0.00,,,0.00,661,Wunderground v.1.15,2013-03-14 19:28:00,
2013-03-14 14:30:00,43.4,38.3,30.08,WNW,295,9.0,9.0,82,0.00,,,0.00,694,Wunderground v.1.15,2013-03-14 19:30:00,
2013-03-14 14:34:00,43.5,38.1,30.08,NW,315,10.0,11.0,81,0.00,,,0.00,668,Wunderground v.1.15,2013-03-14 19:34:00,
2013-03-14 14:35:00,43.5,37.7,30.08,NW,311,8.0,11.0,80,0.00,,,0.00,668,Wunderground v.1.15,2013-03-14 19:35:00,
2013-03-14 14:36:00,43.4,37.3,30.08,WNW,299,8.0,11.0,79,0.00,,,0.00,619,Wunderground v.1.15,2013-03-14 19:36:00,
2013-03-14 14:40:00,43.4,37.6,30.08,NW,306,11.0,11.0,80,0.00,,,0.00,635,Wunderground v.1.15,2013-03-14 19:40:00,
2013-03-14 14:41:00,43.4,37.3,30.08,NW,312,12.0,12.0,79,0.00,,,0.00,615,Wunderground v.1.15,2013-03-14 19:41:00,
2013-03-14 14:43:00,43.4,37.3,30.08,NW,306,9.0,13.0,79,0.00,,,0.00,668,Wunderground v.1.15,2013-03-14 19:43:00,
2013-03-14 14:44:00,43.4,37.6,30.08,NW,306,10.0,13.0,80,0.00,,,0.00,700,Wunderground v.1.15,2013-03-14 19:44:00,
2013-03-14 14:46:00,43.4,37.6,30.08,WNW,300,12.0,13.0,80,0.00,,,0.00,696,Wunderground v.1.15,2013-03-14 19:46:00,
2013-03-14 14:47:00,43.4,37.6,30.08,WNW,301,11.0,13.0,80,0.00,,,0.00,696,Wunderground v.1.15,2013-03-14 19:47:00,
2013-03-14 14:49:00,43.6,37.8,30.08,WNW,300,10.0,13.0,80,0.00,,,0.00,679,Wunderground v.1.15,2013-03-14 19:49:00,
2013-03-14 14:51:00,43.7,38.3,30.08,WNW,297,10.0,10.0,81,0.00,,,0.00,687,Wunderground v.1.15,2013-03-14 19:51:00,
2013-03-14 14:53:00,43.8,38.3,30.08,WNW,294,8.0,10.0,81,0.00,,,0.00,659,Wunderground v.1.15,2013-03-14 19:53:00,
2013-03-14 14:55:00,43.7,38.3,30.08,NW,315,9.0,10.0,81,0.00,,,0.00,640,Wunderground v.1.15,2013-03-14 19:55:00,
2013-03-14 14:57:00,43.7,38.3,30.08,NW,315,8.0,11.0,81,0.00,,,0.00,612,Wunderground v.1.15,2013-03-14 19:57:00,
2013-03-14 14:58:00,43.6,37.8,30.08,NW,321,9.0,11.0,80,0.00,,,0.00,657,Wunderground v.1.15,2013-03-14 19:58:00,
2013-03-14 15:00:00,43.6,37.5,30.08,NW,317,11.0,11.0,79,0.00,,,0.00,677,Wunderground v.1.15,2013-03-14 20:00:00,
2013-03-14 15:02:00,43.6,37.5,30.08,NW,323,9.0,11.0,79,0.00,,,0.00,649,Wunderground v.1.15,2013-03-14 20:02:00,
2013-03-14 15:03:00,43.6,37.5,30.08,NW,313,9.0,11.0,79,0.00,,,0.00,649,Wunderground v.1.15,2013-03-14 20:03:00,
2013-03-14 15:04:00,43.6,37.5,30.08,NW,309,9.0,11.0,79,0.00,,,0.00,686,Wunderground v.1.15,2013-03-14 20:04:00,
2013-03-14 15:05:00,43.7,37.9,30.08,NW,306,11.0,11.0,80,0.00,,,0.00,664,Wunderground v.1.15,2013-03-14 20:05:00,
2013-03-14 15:07:00,43.7,37.9,30.08,NW,311,9.0,11.0,80,0.00,,,0.00,649,Wunderground v.1.15,2013-03-14 20:07:00,
2013-03-14 15:09:00,43.7,37.6,30.08,NW,322,8.0,11.0,79,0.00,,,0.00,635,Wunderground v.1.15,2013-03-14 20:09:00,
2013-03-14 15:11:00,43.6,37.5,30.08,NW,313,11.0,11.0,79,0.00,,,0.00,636,Wunderground v.1.15,2013-03-14 20:11:00,
2013-03-14 15:12:00,43.6,37.5,30.08,NW,309,9.0,11.0,79,0.00,,,0.00,631,Wunderground v.1.15,2013-03-14 20:12:00,
2013-03-14 15:13:00,43.6,37.5,30.07,NW,311,9.0,11.0,79,0.00,,,0.00,612,Wunderground v.1.15,2013-03-14 20:13:00,
2013-03-14 15:14:00,43.6,37.5,30.08,NW,321,9.0,11.0,79,0.00,,,0.00,624,Wunderground v.1.15,2013-03-14 20:14:00,
2013-03-14 15:16:00,43.5,37.7,30.07,NW,315,8.0,11.0,80,0.00,,,0.00,554,Wunderground v.1.15,2013-03-14 20:16:00,
2013-03-14 15:17:00,43.5,37.4,30.07,NW,308,8.0,11.0,79,0.00,,,0.00,624,Wunderground v.1.15,2013-03-14 20:17:00,
2013-03-14 15:18:00,43.5,37.4,30.07,NW,314,7.0,11.0,79,0.00,,,0.00,624,Wunderground v.1.15,2013-03-14 20:18:00,
2013-03-14 15:20:00,43.5,37.7,30.07,WNW,290,10.0,10.0,80,0.00,,,0.00,615,Wunderground v.1.15,2013-03-14 20:20:00,
2013-03-14 15:21:00,43.5,37.4,30.07,NW,313,10.0,10.0,79,0.00,,,0.00,561,Wunderground v.1.15,2013-03-14 20:21:00,
2013-03-14 15:23:00,43.6,37.8,30.07,NW,304,6.0,10.0,80,0.00,,,0.00,592,Wunderground v.1.15,2013-03-14 20:23:00,
2013-03-14 15:25:00,43.6,38.2,30.07,NW,311,6.0,10.0,81,0.00,,,0.00,580,Wunderground v.1.15,2013-03-14 20:25:00,
2013-03-14 15:29:00,43.5,38.1,30.07,NW,321,6.0,10.0,81,0.00,,,0.00,582,Wunderground v.1.15,2013-03-14 20:29:00,
2013-03-14 15:30:00,43.5,37.4,30.07,NW,313,5.0,7.0,79,0.00,,,0.00,582,Wunderground v.1.15,2013-03-14 20:30:00,
2013-03-14 15:33:00,43.4,37.3,30.07,NW,319,7.0,8.0,79,0.00,,,0.00,566,Wunderground v.1.15,2013-03-14 20:33:00,
2013-03-14 15:34:00,43.4,37.3,30.07,WNW,301,8.0,8.0,79,0.00,,,0.00,575,Wunderground v.1.15,2013-03-14 20:34:00,
2013-03-14 15:37:00,43.5,37.4,30.07,WNW,300,8.0,9.0,79,0.00,,,0.00,566,Wunderground v.1.15,2013-03-14 20:37:00,
2013-03-14 15:39:00,43.7,37.9,30.07,WNW,302,9.0,9.0,80,0.00,,,0.00,531,Wunderground v.1.15,2013-03-14 20:39:00,
2013-03-14 15:41:00,43.8,37.7,30.07,WNW,295,8.0,9.0,79,0.00,,,0.00,547,Wunderground v.1.15,2013-03-14 20:41:00,
2013-03-14 15:43:00,43.8,38.0,30.07,WNW,300,8.0,9.0,80,0.00,,,0.00,531,Wunderground v.1.15,2013-03-14 20:43:00,
2013-03-14 15:44:00,43.9,38.4,30.07,WNW,300,8.0,10.0,81,0.00,,,0.00,489,Wunderground v.1.15,2013-03-14 20:44:00,
2013-03-14 15:45:00,43.9,38.1,30.07,WNW,300,7.0,10.0,80,0.00,,,0.00,461,Wunderground v.1.15,2013-03-14 20:45:00,
2013-03-14 15:46:00,43.9,37.8,30.07,WNW,298,9.0,10.0,79,0.00,,,0.00,476,Wunderground v.1.15,2013-03-14 20:46:00,
2013-03-14 15:49:00,43.8,38.0,30.08,WNW,297,7.0,10.0,80,0.00,,,0.00,459,Wunderground v.1.15,2013-03-14 20:49:00,
2013-03-14 15:50:00,43.8,38.0,30.08,WNW,294,6.0,10.0,80,0.00,,,0.00,378,Wunderground v.1.15,2013-03-14 20:50:00,
2013-03-14 15:51:00,43.8,38.0,30.07,WNW,296,6.0,8.0,80,0.00,,,0.00,378,Wunderground v.1.15,2013-03-14 20:51:00,
2013-03-14 15:52:00,43.8,38.3,30.08,NW,306,9.0,9.0,81,0.00,,,0.00,478,Wunderground v.1.15,2013-03-14 20:52:00,
2013-03-14 15:55:00,43.8,38.0,30.08,NW,304,8.0,9.0,80,0.00,,,0.00,461,Wunderground v.1.15,2013-03-14 20:55:00,
2013-03-14 15:57:00,43.8,38.0,30.08,WNW,299,7.0,9.0,80,0.00,,,0.00,475,Wunderground v.1.15,2013-03-14 20:57:00,
2013-03-14 15:59:00,43.8,38.3,30.08,WNW,292,8.0,9.0,81,0.00,,,0.00,501,Wunderground v.1.15,2013-03-14 20:59:00,
2013-03-14 16:01:00,43.9,38.4,30.08,WNW,295,9.0,9.0,81,0.00,,,0.00,513,Wunderground v.1.15,2013-03-14 21:01:00,
2013-03-14 16:03:00,43.9,38.1,30.08,WNW,301,7.0,9.0,80,0.00,,,0.00,476,Wunderground v.1.15,2013-03-14 21:03:00,
2013-03-14 16:04:00,44.0,38.5,30.07,WNW,291,8.0,9.0,81,0.00,,,0.00,496,Wunderground v.1.15,2013-03-14 21:04:00,
2013-03-14 16:09:00,44.0,38.9,30.08,NW,304,8.0,9.0,82,0.00,,,0.00,469,Wunderground v.1.15,2013-03-14 21:09:00,
2013-03-14 16:10:00,44.0,38.2,30.08,NW,306,6.0,9.0,80,0.00,,,0.00,471,Wunderground v.1.15,2013-03-14 21:10:00,
2013-03-14 16:14:00,43.9,38.1,30.08,NW,318,7.0,9.0,80,0.00,,,0.00,436,Wunderground v.1.15,2013-03-14 21:14:00,
2013-03-14 16:16:00,43.8,37.7,30.08,NW,316,9.0,10.0,79,0.00,,,0.00,441,Wunderground v.1.15,2013-03-14 21:16:00,
2013-03-14 16:18:00,43.7,37.6,30.08,NW,308,8.0,10.0,79,0.00,,,0.00,466,Wunderground v.1.15,2013-03-14 21:18:00,
2013-03-14 16:20:00,43.8,38.3,30.08,NW,309,8.0,8.0,81,0.00,,,0.00,452,Wunderground v.1.15,2013-03-14 21:20:00,
2013-03-14 16:21:00,43.8,38.0,30.08,WNW,298,9.0,9.0,80,0.00,,,0.00,452,Wunderground v.1.15,2013-03-14 21:21:00,
2013-03-14 16:23:00,43.8,38.3,30.08,NW,311,7.0,9.0,81,0.00,,,0.00,439,Wunderground v.1.15,2013-03-14 21:23:00,
2013-03-14 16:26:00,43.8,38.0,30.08,WNW,303,10.0,10.0,80,0.00,,,0.00,443,Wunderground v.1.15,2013-03-14 21:26:00,
2013-03-14 16:27:00,43.8,38.3,30.08,NW,308,8.0,10.0,81,0.00,,,0.00,466,Wunderground v.1.15,2013-03-14 21:27:00,
2013-03-14 16:29:00,43.9,38.4,30.08,WNW,298,9.0,10.0,81,0.00,,,0.00,434,Wunderground v.1.15,2013-03-14 21:29:00,
2013-03-14 16:31:00,43.9,38.1,30.08,NW,306,9.0,10.0,80,0.00,,,0.00,429,Wunderground v.1.15,2013-03-14 21:31:00,
2013-03-14 16:32:00,43.9,38.1,30.09,WNW,303,10.0,10.0,80,0.00,,,0.00,427,Wunderground v.1.15,2013-03-14 21:32:00,
2013-03-14 16:34:00,43.9,37.8,30.08,NW,306,8.0,10.0,79,0.00,,,0.00,445,Wunderground v.1.15,2013-03-14 21:34:00,
2013-03-14 16:36:00,43.9,38.1,30.08,WNW,301,8.0,10.0,80,0.00,,,0.00,343,Wunderground v.1.15,2013-03-14 21:36:00,
2013-03-14 16:38:00,43.8,38.0,30.08,NW,307,8.0,10.0,80,0.00,,,0.00,397,Wunderground v.1.15,2013-03-14 21:38:00,
2013-03-14 16:39:00,43.8,38.0,30.08,NW,312,9.0,10.0,80,0.00,,,0.00,422,Wunderground v.1.15,2013-03-14 21:39:00,
2013-03-14 16:42:00,43.8,37.7,30.08,NNW,329,6.0,8.0,79,0.00,,,0.00,432,Wunderground v.1.15,2013-03-14 21:42:00,
2013-03-14 16:44:00,43.7,37.0,30.08,NW,313,6.0,8.0,77,0.00,,,0.00,466,Wunderground v.1.15,2013-03-14 21:44:00,
2013-03-14 16:45:00,43.7,37.3,30.08,NW,317,8.0,8.0,78,0.00,,,0.00,466,Wunderground v.1.15,2013-03-14 21:45:00,
2013-03-14 16:47:00,43.8,37.7,30.08,NW,312,7.0,8.0,79,0.00,,,0.00,445,Wunderground v.1.15,2013-03-14 21:47:00,
2013-03-14 16:50:00,43.7,37.3,30.08,NW,311,6.0,6.0,78,0.00,,,0.00,432,Wunderground v.1.15,2013-03-14 21:50:00,
2013-03-14 16:51:00,43.8,37.4,30.08,NW,310,6.0,6.0,78,0.00,,,0.00,432,Wunderground v.1.15,2013-03-14 21:51:00,
2013-03-14 16:53:00,43.8,37.4,30.08,NW,313,8.0,8.0,78,0.00,,,0.00,371,Wunderground v.1.15,2013-03-14 21:53:00,
2013-03-14 16:56:00,43.7,37.6,30.08,NW,314,6.0,8.0,79,0.00,,,0.00,388,Wunderground v.1.15,2013-03-14 21:56:00,
2013-03-14 16:58:00,43.7,37.3,30.08,NW,313,5.0,8.0,78,0.00,,,0.00,332,Wunderground v.1.15,2013-03-14 21:58:00,
2013-03-14 17:00:00,43.6,36.9,30.08,NW,321,6.0,7.0,77,0.00,,,0.00,367,Wunderground v.1.15,2013-03-14 22:00:00,
2013-03-14 17:01:00,43.5,37.1,30.08,NW,315,7.0,7.0,78,0.00,,,0.00,367,Wunderground v.1.15,2013-03-14 22:01:00,
2013-03-14 17:03:00,43.4,36.7,30.08,NW,309,5.0,7.0,77,0.00,,,0.00,392,Wunderground v.1.15,2013-03-14 22:03:00,
2013-03-14 17:07:00,43.1,36.7,30.08,NW,319,6.0,7.0,78,0.00,,,0.00,353,Wunderground v.1.15,2013-03-14 22:07:00,
2013-03-14 17:08:00,43.0,36.6,30.08,NW,321,5.0,7.0,78,0.00,,,0.00,388,Wunderground v.1.15,2013-03-14 22:08:00,
2013-03-14 17:10:00,43.2,37.1,30.08,NW,323,6.0,6.0,79,0.00,,,0.00,403,Wunderground v.1.15,2013-03-14 22:10:00,
2013-03-14 17:13:00,43.4,37.0,30.08,NW,321,4.0,6.0,78,0.00,,,0.00,396,Wunderground v.1.15,2013-03-14 22:13:00,
2013-03-14 17:14:00,43.4,37.3,30.08,NW,316,5.0,6.0,79,0.00,,,0.00,411,Wunderground v.1.15,2013-03-14 22:14:00,
2013-03-14 17:17:00,43.3,37.2,30.08,NW,318,8.0,9.0,79,0.00,,,0.00,390,Wunderground v.1.15,2013-03-14 22:17:00,
2013-03-14 17:19:00,43.3,37.2,30.08,NW,319,7.0,9.0,79,0.00,,,0.00,390,Wunderground v.1.15,2013-03-14 22:19:00,
2013-03-14 17:21:00,43.4,37.3,30.08,NW,315,6.0,6.0,79,0.00,,,0.00,390,Wunderground v.1.15,2013-03-14 22:21:00,
2013-03-14 17:24:00,43.5,38.1,30.08,NW,311,7.0,8.0,81,0.00,,,0.00,396,Wunderground v.1.15,2013-03-14 22:24:00,
2013-03-14 17:25:00,43.5,37.7,30.08,NW,315,7.0,8.0,80,0.00,,,0.00,380,Wunderground v.1.15,2013-03-14 22:25:00,
2013-03-14 17:27:00,43.5,37.7,30.08,NW,319,6.0,8.0,80,0.00,,,0.00,338,Wunderground v.1.15,2013-03-14 22:27:00,
2013-03-14 17:30:00,43.4,37.3,30.08,NW,324,5.0,7.0,79,0.00,,,0.00,323,Wunderground v.1.15,2013-03-14 22:30:00,
2013-03-14 17:31:00,43.3,37.5,30.08,NW,317,8.0,8.0,80,0.00,,,0.00,323,Wunderground v.1.15,2013-03-14 22:31:00,
2013-03-14 17:34:00,43.2,37.4,30.08,NW,317,8.0,10.0,80,0.00,,,0.00,357,Wunderground v.1.15,2013-03-14 22:34:00,
2013-03-14 17:36:00,43.1,37.7,30.08,NW,309,7.0,10.0,81,0.00,,,0.00,357,Wunderground v.1.15,2013-03-14 22:36:00,
2013-03-14 17:38:00,43.1,37.3,30.08,NW,312,7.0,10.0,80,0.00,,,0.00,343,Wunderground v.1.15,2013-03-14 22:38:00,
2013-03-14 17:39:00,43.1,37.0,30.09,NW,322,9.0,10.0,79,0.00,,,0.00,343,Wunderground v.1.15,2013-03-14 22:39:00,
2013-03-14 17:42:00,43.1,37.0,30.08,NW,309,7.0,9.0,79,0.00,,,0.00,353,Wunderground v.1.15,2013-03-14 22:42:00,
2013-03-14 17:44:00,42.9,36.8,30.09,NW,305,8.0,10.0,79,0.00,,,0.00,315,Wunderground v.1.15,2013-03-14 22:44:00,
2013-03-14 17:45:00,42.9,36.8,30.09,NW,311,9.0,10.0,79,0.00,,,0.00,294,Wunderground v.1.15,2013-03-14 22:45:00,
2013-03-14 17:46:00,42.9,37.2,30.09,NW,308,7.0,10.0,80,0.00,,,0.00,294,Wunderground v.1.15,2013-03-14 22:46:00,
2013-03-14 17:47:00,42.9,37.2,30.09,NW,311,8.0,10.0,80,0.00,,,0.00,236,Wunderground v.1.15,2013-03-14 22:47:00,
2013-03-14 17:50:00,42.8,36.7,30.09,NW,319,7.0,7.0,79,0.00,,,0.00,294,Wunderground v.1.15,2013-03-14 22:50:00,
2013-03-14 17:52:00,42.7,36.6,30.09,NW,317,8.0,8.0,79,0.00,,,0.00,267,Wunderground v.1.15,2013-03-14 22:52:00,
2013-03-14 17:53:00,42.7,37.0,30.09,NW,319,6.0,8.0,80,0.00,,,0.00,271,Wunderground v.1.15,2013-03-14 22:53:00,
2013-03-14 17:55:00,42.6,36.9,30.09,NW,313,7.0,8.0,80,0.00,,,0.00,272,Wunderground v.1.15,2013-03-14 22:55:00,
2013-03-14 17:58:00,42.6,36.9,30.09,NW,315,9.0,9.0,80,0.00,,,0.00,274,Wunderground v.1.15,2013-03-14 22:58:00,
2013-03-14 18:02:00,42.6,37.2,30.09,NW,322,7.0,8.0,81,0.00,,,0.00,246,Wunderground v.1.15,2013-03-14 23:02:00,
2013-03-14 18:03:00,42.6,36.9,30.09,NW,315,8.0,8.0,80,0.00,,,0.00,213,Wunderground v.1.15,2013-03-14 23:03:00,
2013-03-14 18:04:00,42.5,36.8,30.09,NW,323,7.0,9.0,80,0.00,,,0.00,183,Wunderground v.1.15,2013-03-14 23:04:00,
2013-03-14 18:07:00,42.3,36.6,30.09,NW,323,7.0,9.0,80,0.00,,,0.00,214,Wunderground v.1.15,2013-03-14 23:07:00,
2013-03-14 18:08:00,42.3,36.6,30.09,NW,323,4.0,9.0,80,0.00,,,0.00,214,Wunderground v.1.15,2013-03-14 23:08:00,
2013-03-14 18:09:00,42.2,36.5,30.09,NW,313,10.0,10.0,80,0.00,,,0.00,209,Wunderground v.1.15,2013-03-14 23:09:00,
2013-03-14 18:12:00,42.2,36.8,30.09,NW,321,6.0,10.0,81,0.00,,,0.00,202,Wunderground v.1.15,2013-03-14 23:12:00,
2013-03-14 18:15:00,42.2,36.8,30.09,NW,323,2.0,10.0,81,0.00,,,0.00,193,Wunderground v.1.15,2013-03-14 23:15:00,
2013-03-14 18:17:00,42.3,36.6,30.09,NW,317,6.0,10.0,80,0.00,,,0.00,171,Wunderground v.1.15,2013-03-14 23:17:00,
2013-03-14 18:18:00,42.3,36.3,30.09,NW,321,4.0,10.0,79,0.00,,,0.00,171,Wunderground v.1.15,2013-03-14 23:18:00,
2013-03-14 18:21:00,42.3,36.6,30.09,NW,321,3.0,5.0,80,0.00,,,0.00,155,Wunderground v.1.15,2013-03-14 23:21:00,
2013-03-14 18:23:00,42.2,36.2,30.09,NNE,23,3.0,5.0,79,0.00,,,0.00,114,Wunderground v.1.15,2013-03-14 23:23:00,
2013-03-14 18:26:00,42.7,36.0,30.09,NW,322,4.0,5.0,77,0.00,,,0.00,135,Wunderground v.1.15,2013-03-14 23:26:00,
2013-03-14 18:28:00,42.4,36.3,30.09,NW,317,1.0,5.0,79,0.00,,,0.00,98,Wunderground v.1.15,2013-03-14 23:28:00,
2013-03-14 18:31:00,42.4,36.3,30.09,North,10,4.0,4.0,79,0.00,,,0.00,113,Wunderground v.1.15,2013-03-14 23:31:00,
2013-03-14 18:32:00,42.5,36.4,30.09,NNE,23,1.0,4.0,79,0.00,,,0.00,113,Wunderground v.1.15,2013-03-14 23:32:00,
2013-03-14 18:33:00,42.7,36.0,30.09,NE,36,5.0,5.0,77,0.00,,,0.00,100,Wunderground v.1.15,2013-03-14 23:33:00,
2013-03-14 18:35:00,42.7,36.0,30.09,NNE,22,0.0,5.0,77,0.00,,,0.00,91,Wunderground v.1.15,2013-03-14 23:35:00,
2013-03-14 18:37:00,42.7,36.0,30.09,NNE,15,4.0,5.0,77,0.00,,,0.00,90,Wunderground v.1.15,2013-03-14 23:37:00,
2013-03-14 18:39:00,42.6,35.6,30.09,North,9,5.0,5.0,76,0.00,,,0.00,76,Wunderground v.1.15,2013-03-14 23:39:00,
2013-03-14 18:41:00,42.5,35.5,30.09,NNE,18,3.0,4.0,76,0.00,,,0.00,74,Wunderground v.1.15,2013-03-14 23:41:00,
2013-03-14 18:42:00,42.5,35.5,30.09,NNE,18,1.0,4.0,76,0.00,,,0.00,72,Wunderground v.1.15,2013-03-14 23:42:00,
2013-03-14 18:44:00,42.4,35.7,30.09,NNE,18,3.0,4.0,77,0.00,,,0.00,65,Wunderground v.1.15,2013-03-14 23:44:00,
2013-03-14 18:47:00,42.2,35.5,30.09,North,5,0.0,4.0,77,0.00,,,0.00,58,Wunderground v.1.15,2013-03-14 23:47:00,
2013-03-14 18:50:00,42.0,35.3,30.09,North,11,0.0,1.0,77,0.00,,,0.00,49,Wunderground v.1.15,2013-03-14 23:50:00,
2013-03-14 18:51:00,41.7,35.0,30.09,North,11,0.0,1.0,77,0.00,,,0.00,44,Wunderground v.1.15,2013-03-14 23:51:00,
2013-03-14 18:52:00,41.6,35.2,30.09,North,11,0.0,1.0,78,0.00,,,0.00,44,Wunderground v.1.15,2013-03-14 23:52:00,
2013-03-14 18:53:00,41.3,35.0,30.09,North,11,0.0,1.0,78,0.00,,,0.00,40,Wunderground v.1.15,2013-03-14 23:53:00,
2013-03-14 18:55:00,40.9,34.9,30.09,North,11,0.0,1.0,79,0.00,,,0.00,35,Wunderground v.1.15,2013-03-14 23:55:00,
2013-03-14 18:57:00,40.9,35.2,30.09,North,11,0.0,1.0,80,0.00,,,0.00,32,Wunderground v.1.15,2013-03-14 23:57:00,
2013-03-14 18:58:00,40.8,34.8,30.09,North,11,1.0,1.0,79,0.00,,,0.00,30,Wunderground v.1.15,2013-03-14 23:58:00,
2013-03-14 18:59:00,40.8,35.1,30.09,North,5,1.0,2.0,80,0.00,,,0.00,28,Wunderground v.1.15,2013-03-14 23:59:00,
2013-03-14 19:01:00,40.9,35.2,30.09,North,355,3.0,4.0,80,0.00,,,0.00,26,Wunderground v.1.15,2013-03-15 00:01:00,
2013-03-14 19:03:00,41.0,35.0,30.09,North,355,2.0,4.0,79,0.00,,,0.00,23,Wunderground v.1.15,2013-03-15 00:03:00,
2013-03-14 19:04:00,41.0,35.0,30.09,North,350,0.0,4.0,79,0.00,,,0.00,21,Wunderground v.1.15,2013-03-15 00:04:00,
2013-03-14 19:09:00,40.7,34.7,30.09,North,350,0.0,4.0,79,0.00,,,0.00,16,Wunderground v.1.15,2013-03-15 00:09:00,
2013-03-14 19:12:00,40.5,34.8,30.09,North,5,1.0,1.0,80,0.00,,,0.00,12,Wunderground v.1.15,2013-03-15 00:12:00,
2013-03-14 19:16:00,40.4,34.7,30.09,North,5,0.0,1.0,80,0.00,,,0.00,9,Wunderground v.1.15,2013-03-15 00:16:00,
2013-03-14 19:17:00,40.3,34.6,30.09,North,5,0.0,1.0,80,0.00,,,0.00,7,Wunderground v.1.15,2013-03-15 00:17:00,
2013-03-14 19:18:00,40.2,34.8,30.09,North,5,0.0,1.0,81,0.00,,,0.00,7,Wunderground v.1.15,2013-03-15 00:18:00,
2013-03-14 19:19:00,40.2,34.8,30.09,North,5,0.0,2.0,81,0.00,,,0.00,5,Wunderground v.1.15,2013-03-15 00:19:00,
2013-03-14 19:21:00,40.1,34.7,30.09,North,5,0.0,1.0,81,0.00,,,0.00,0,Wunderground v.1.15,2013-03-15 00:21:00,
2013-03-14 19:23:00,39.9,34.5,30.09,North,5,1.0,1.0,81,0.00,,,0.00,0,Wunderground v.1.15,2013-03-15 00:23:00,
2013-03-14 19:25:00,39.8,34.4,30.09,North,5,0.0,1.0,81,0.00,,,0.00,0,Wunderground v.1.15,2013-03-15 00:25:00,
2013-03-14 19:26:00,39.7,34.3,30.09,North,5,0.0,1.0,81,0.00,,,0.00,0,Wunderground v.1.15,2013-03-15 00:26:00,
2013-03-14 19:27:00,39.7,34.7,30.09,North,5,0.0,1.0,82,0.00,,,0.00,0,Wunderground v.1.15,2013-03-15 00:27:00,
2013-03-14 19:28:00,39.5,34.5,30.10,North,5,0.0,1.0,82,0.00,,,0.00,0,Wunderground v.1.15,2013-03-15 00:28:00,
2013-03-14 19:30:00,39.2,34.2,30.10,North,5,0.0,0.0,82,0.00,,,0.00,0,Wunderground v.1.15,2013-03-15 00:30:00,
2013-03-14 19:32:00,38.9,33.9,30.10,North,5,0.0,0.0,82,0.00,,,0.00,0,Wunderground v.1.15,2013-03-15 00:32:00,
2013-03-14 19:34:00,38.4,34.0,30.10,North,5,0.0,0.0,84,0.00,,,0.00,0,Wunderground v.1.15,2013-03-15 00:34:00,
2013-03-14 19:36:00,38.3,34.2,30.09,North,5,0.0,0.0,85,0.00,,,0.00,0,Wunderground v.1.15,2013-03-15 00:36:00,
2013-03-14 19:37:00,38.3,34.2,30.09,North,5,0.0,0.0,85,0.00,,,0.00,0,Wunderground v.1.15,2013-03-15 00:37:00,
2013-03-14 19:38:00,38.3,34.2,30.09,North,5,0.0,0.0,85,0.00,,,0.00,0,Wunderground v.1.15,2013-03-15 00:38:00,
2013-03-14 19:39:00,38.4,34.6,30.09,North,5,1.0,2.0,86,0.00,,,0.00,0,Wunderground v.1.15,2013-03-15 00:39:00,
2013-03-14 19:43:00,38.5,34.4,30.09,North,5,0.0,1.0,85,0.00,,,0.00,0,Wunderground v.1.15,2013-03-15 00:43:00,
2013-03-14 19:44:00,38.5,34.4,30.09,North,5,0.0,1.0,85,0.00,,,0.00,0,Wunderground v.1.15,2013-03-15 00:44:00,
2013-03-14 19:46:00,38.5,34.4,30.09,North,5,0.0,1.0,85,0.00,,,0.00,0,Wunderground v.1.15,2013-03-15 00:46:00,
2013-03-14 19:47:00,38.5,34.4,30.09,North,5,0.0,1.0,85,0.00,,,0.00,0,Wunderground v.1.15,2013-03-15 00:47:00,
2013-03-14 19:48:00,38.5,34.4,30.09,North,5,2.0,3.0,85,0.00,,,0.00,0,Wunderground v.1.15,2013-03-15 00:48:00,
2013-03-14 19:49:00,38.5,34.4,30.09,North,5,0.0,3.0,85,0.00,,,0.00,0,Wunderground v.1.15,2013-03-15 00:49:00,
2013-03-14 19:52:00,38.5,34.4,30.10,North,5,0.0,0.0,85,0.00,,,0.00,0,Wunderground v.1.15,2013-03-15 00:52:00,
2013-03-14 19:53:00,38.4,34.3,30.10,North,5,0.0,0.0,85,0.00,,,0.00,0,Wunderground v.1.15,2013-03-15 00:53:00,
2013-03-14 19:54:00,38.4,34.3,30.10,North,5,0.0,0.0,85,0.00,,,0.00,0,Wunderground v.1.15,2013-03-15 00:54:00,
2013-03-14 19:57:00,38.3,34.2,30.10,North,5,0.0,2.0,85,0.00,,,0.00,0,Wunderground v.1.15,2013-03-15 00:57:00,
2013-03-14 20:00:00,38.1,34.0,30.10,North,5,0.0,0.0,85,0.00,,,0.00,0,Wunderground v.1.15,2013-03-15 01:00:00,
2013-03-14 20:03:00,38.1,34.3,30.10,North,5,0.0,0.0,86,0.00,,,0.00,0,Wunderground v.1.15,2013-03-15 01:03:00,
2013-03-14 20:04:00,38.0,34.2,30.10,North,5,0.0,0.0,86,0.00,,,0.00,0,Wunderground v.1.15,2013-03-15 01:04:00,
2013-03-14 20:05:00,38.0,33.9,30.10,North,5,0.0,0.0,85,0.00,,,0.00,0,Wunderground v.1.15,2013-03-15 01:05:00,
2013-03-14 20:09:00,37.9,34.1,30.10,North,5,0.0,0.0,86,0.00,,,0.00,0,Wunderground v.1.15,2013-03-15 01:09:00,
2013-03-14 20:10:00,37.8,34.0,30.10,North,5,0.0,0.0,86,0.00,,,0.00,0,Wunderground v.1.15,2013-03-15 01:10:00,
2013-03-14 20:11:00,37.7,33.9,30.10,North,5,0.0,0.0,86,0.00,,,0.00,0,Wunderground v.1.15,2013-03-15 01:11:00,
2013-03-14 20:12:00,37.6,33.8,30.10,North,5,0.0,0.0,86,0.00,,,0.00,0,Wunderground v.1.15,2013-03-15 01:12:00,
2013-03-14 20:14:00,37.1,33.3,30.10,North,5,0.0,0.0,86,0.00,,,0.00,0,Wunderground v.1.15,2013-03-15 01:14:00,
2013-03-14 20:15:00,36.9,33.1,30.10,North,5,0.0,0.0,86,0.00,,,0.00,0,Wunderground v.1.15,2013-03-15 01:15:00,
2013-03-14 20:17:00,36.1,32.3,30.10,North,5,0.0,0.0,86,0.00,,,0.00,0,Wunderground v.1.15,2013-03-15 01:17:00,
2013-03-14 20:18:00,36.0,32.2,30.10,North,5,0.0,0.0,86,0.00,,,0.00,0,Wunderground v.1.15,2013-03-15 01:18:00,
2013-03-14 20:20:00,35.6,32.4,30.10,North,5,0.0,0.0,88,0.00,,,0.00,0,Wunderground v.1.15,2013-03-15 01:20:00,
2013-03-14 20:25:00,35.3,32.7,30.10,North,5,0.0,0.0,90,0.00,,,0.00,0,Wunderground v.1.15,2013-03-15 01:25:00,
2013-03-14 20:29:00,35.3,32.7,30.10,North,5,0.0,0.0,90,0.00,,,0.00,0,Wunderground v.1.15,2013-03-15 01:29:00,
2013-03-14 20:30:00,35.2,32.6,30.10,North,5,0.0,0.0,90,0.00,,,0.00,0,Wunderground v.1.15,2013-03-15 01:30:00,
2013-03-14 20:31:00,35.2,32.6,30.10,North,5,0.0,0.0,90,0.00,,,0.00,0,Wunderground v.1.15,2013-03-15 01:31:00,
2013-03-14 20:37:00,34.9,32.3,30.09,North,5,0.0,0.0,90,0.00,,,0.00,0,Wunderground v.1.15,2013-03-15 01:37:00,
2013-03-14 20:42:00,34.5,32.1,30.09,North,5,0.0,0.0,91,0.00,,,0.00,0,Wunderground v.1.15,2013-03-15 01:42:00,
2013-03-14 20:43:00,34.5,32.1,30.09,North,5,0.0,0.0,91,0.00,,,0.00,0,Wunderground v.1.15,2013-03-15 01:43:00,
2013-03-14 20:44:00,34.4,32.0,30.09,North,5,0.0,0.0,91,0.00,,,0.00,0,Wunderground v.1.15,2013-03-15 01:44:00,
2013-03-14 20:46:00,34.5,32.4,30.09,North,5,0.0,0.0,92,0.00,,,0.00,0,Wunderground v.1.15,2013-03-15 01:46:00,
2013-03-14 20:48:00,34.5,32.4,30.09,North,5,0.0,0.0,92,0.00,,,0.00,0,Wunderground v.1.15,2013-03-15 01:48:00,
2013-03-14 20:50:00,34.5,32.4,30.09,North,5,0.0,0.0,92,0.00,,,0.00,0,Wunderground v.1.15,2013-03-15 01:50:00,
2013-03-14 20:52:00,34.7,32.6,30.09,North,5,0.0,0.0,92,0.00,,,0.00,0,Wunderground v.1.15,2013-03-15 01:52:00,
2013-03-14 20:55:00,34.9,32.8,30.09,North,5,0.0,0.0,92,0.00,,,0.00,0,Wunderground v.1.15,2013-03-15 01:55:00,
2013-03-14 20:57:00,34.6,32.0,30.09,North,5,0.0,0.0,90,0.00,,,0.00,0,Wunderground v.1.15,2013-03-15 01:57:00,
2013-03-14 21:00:00,34.1,31.7,30.09,North,5,0.0,0.0,91,0.00,,,0.00,0,Wunderground v.1.15,2013-03-15 02:00:00,
2013-03-14 21:01:00,34.1,31.7,30.09,North,5,0.0,0.0,91,0.00,,,0.00,0,Wunderground v.1.15,2013-03-15 02:01:00,
2013-03-14 21:03:00,34.0,31.6,30.09,North,5,0.0,0.0,91,0.00,,,0.00,0,Wunderground v.1.15,2013-03-15 02:03:00,
2013-03-14 21:06:00,34.4,32.3,30.09,North,5,0.0,0.0,92,0.00,,,0.00,0,Wunderground v.1.15,2013-03-15 02:06:00,
2013-03-14 21:07:00,34.6,32.5,30.09,North,5,0.0,0.0,92,0.00,,,0.00,0,Wunderground v.1.15,2013-03-15 02:07:00,
2013-03-14 21:09:00,34.7,32.3,30.09,North,5,0.0,0.0,91,0.00,,,0.00,0,Wunderground v.1.15,2013-03-15 02:09:00,
2013-03-14 21:14:00,34.6,32.0,30.09,North,5,0.0,0.0,90,0.00,,,0.00,0,Wunderground v.1.15,2013-03-15 02:14:00,
2013-03-14 21:18:00,34.2,31.8,30.09,North,5,0.0,0.0,91,0.00,,,0.00,0,Wunderground v.1.15,2013-03-15 02:18:00,
2013-03-14 21:19:00,34.1,31.5,30.09,North,5,0.0,0.0,90,0.00,,,0.00,0,Wunderground v.1.15,2013-03-15 02:19:00,
2013-03-14 21:20:00,34.0,31.4,30.09,North,5,0.0,0.0,90,0.00,,,0.00,0,Wunderground v.1.15,2013-03-15 02:20:00,
2013-03-14 21:24:00,33.8,31.7,30.09,North,5,0.0,0.0,92,0.00,,,0.00,0,Wunderground v.1.15,2013-03-15 02:24:00,
2013-03-14 21:25:00,33.8,31.7,30.09,North,5,0.0,0.0,92,0.00,,,0.00,0,Wunderground v.1.15,2013-03-15 02:25:00,
2013-03-14 21:26:00,33.9,31.8,30.09,North,5,0.0,0.0,92,0.00,,,0.00,0,Wunderground v.1.15,2013-03-15 02:26:00,
2013-03-14 21:30:00,33.9,31.8,30.09,North,5,0.0,0.0,92,0.00,,,0.00,0,Wunderground v.1.15,2013-03-15 02:30:00,
2013-03-14 21:31:00,33.9,31.8,30.09,North,5,0.0,0.0,92,0.00,,,0.00,0,Wunderground v.1.15,2013-03-15 02:31:00,
2013-03-14 21:32:00,34.0,31.9,30.09,North,5,0.0,0.0,92,0.00,,,0.00,0,Wunderground v.1.15,2013-03-15 02:32:00,
2013-03-14 21:33:00,34.1,32.0,30.09,North,5,0.0,0.0,92,0.00,,,0.00,0,Wunderground v.1.15,2013-03-15 02:33:00,
2013-03-14 21:35:00,34.0,31.9,30.09,North,5,0.0,0.0,92,0.00,,,0.00,0,Wunderground v.1.15,2013-03-15 02:35:00,
2013-03-14 21:36:00,34.0,31.9,30.09,North,5,0.0,0.0,92,0.00,,,0.00,0,Wunderground v.1.15,2013-03-15 02:36:00,
2013-03-14 21:37:00,33.7,31.4,30.09,North,5,0.0,0.0,91,0.00,,,0.00,0,Wunderground v.1.15,2013-03-15 02:37:00,
2013-03-14 21:39:00,33.6,31.5,30.09,North,5,0.0,0.0,92,0.00,,,0.00,0,Wunderground v.1.15,2013-03-15 02:39:00,
2013-03-14 21:42:00,33.6,31.8,30.08,North,5,0.0,0.0,93,0.00,,,0.00,0,Wunderground v.1.15,2013-03-15 02:42:00,
2013-03-14 21:43:00,33.8,32.0,30.08,North,5,0.0,0.0,93,0.00,,,0.00,0,Wunderground v.1.15,2013-03-15 02:43:00,
2013-03-14 21:47:00,34.1,32.3,30.08,North,5,0.0,0.0,93,0.00,,,0.00,0,Wunderground v.1.15,2013-03-15 02:47:00,
2013-03-14 21:48:00,34.2,32.1,30.08,North,5,0.0,0.0,92,0.00,,,0.00,0,Wunderground v.1.15,2013-03-15 02:48:00,
2013-03-14 21:50:00,34.0,31.6,30.08,North,5,0.0,0.0,91,0.00,,,0.00,0,Wunderground v.1.15,2013-03-15 02:50:00,
2013-03-14 21:53:00,33.9,31.8,30.08,North,5,0.0,0.0,92,0.00,,,0.00,0,Wunderground v.1.15,2013-03-15 02:53:00,
2013-03-14 21:56:00,33.8,31.7,30.08,North,5,0.0,0.0,92,0.00,,,0.00,0,Wunderground v.1.15,2013-03-15 02:56:00,
2013-03-14 21:59:00,33.9,31.8,30.08,North,5,0.0,0.0,92,0.00,,,0.00,0,Wunderground v.1.15,2013-03-15 02:59:00,
2013-03-14 22:02:00,34.0,31.9,30.08,North,5,0.0,0.0,92,0.00,,,0.00,0,Wunderground v.1.15,2013-03-15 03:02:00,
2013-03-14 22:03:00,34.1,32.0,30.07,North,5,0.0,0.0,92,0.00,,,0.00,0,Wunderground v.1.15,2013-03-15 03:03:00,
2013-03-14 22:04:00,34.1,32.0,30.07,North,5,0.0,0.0,92,0.00,,,0.00,0,Wunderground v.1.15,2013-03-15 03:04:00,
2013-03-14 22:05:00,34.1,32.0,30.07,North,5,0.0,0.0,92,0.00,,,0.00,0,Wunderground v.1.15,2013-03-15 03:05:00,
2013-03-14 22:08:00,34.1,32.0,30.07,North,5,0.0,0.0,92,0.00,,,0.00,0,Wunderground v.1.15,2013-03-15 03:08:00,
2013-03-14 22:09:00,34.1,31.7,30.07,North,5,0.0,0.0,91,0.00,,,0.00,0,Wunderground v.1.15,2013-03-15 03:09:00,
2013-03-14 22:11:00,34.1,31.7,30.07,North,5,0.0,0.0,91,0.00,,,0.00,0,Wunderground v.1.15,2013-03-15 03:11:00,
2013-03-14 22:14:00,33.9,31.6,30.07,North,5,0.0,0.0,91,0.00,,,0.00,0,Wunderground v.1.15,2013-03-15 03:14:00,
2013-03-14 22:15:00,33.8,31.5,30.07,North,5,0.0,0.0,91,0.00,,,0.00,0,Wunderground v.1.15,2013-03-15 03:15:00,
2013-03-14 22:16:00,33.7,31.4,30.07,North,5,0.0,0.0,91,0.00,,,0.00,0,Wunderground v.1.15,2013-03-15 03:16:00,
2013-03-14 22:19:00,33.7,31.6,30.07,North,5,0.0,0.0,92,0.00,,,0.00,0,Wunderground v.1.15,2013-03-15 03:19:00,
2013-03-14 22:20:00,33.7,31.6,30.07,North,5,0.0,0.0,92,0.00,,,0.00,0,Wunderground v.1.15,2013-03-15 03:20:00,
2013-03-14 22:21:00,33.7,31.6,30.07,North,5,0.0,0.0,92,0.00,,,0.00,0,Wunderground v.1.15,2013-03-15 03:21:00,
2013-03-14 22:23:00,33.4,31.3,30.07,North,5,0.0,0.0,92,0.00,,,0.00,0,Wunderground v.1.15,2013-03-15 03:23:00,
2013-03-14 22:27:00,33.2,31.1,30.07,North,5,0.0,0.0,92,0.00,,,0.00,0,Wunderground v.1.15,2013-03-15 03:27:00,
2013-03-14 22:28:00,33.2,31.4,30.08,North,5,0.0,0.0,93,0.00,,,0.00,0,Wunderground v.1.15,2013-03-15 03:28:00,
2013-03-14 22:29:00,33.2,31.4,30.08,North,5,0.0,0.0,93,0.00,,,0.00,0,Wunderground v.1.15,2013-03-15 03:29:00,
2013-03-14 22:30:00,33.2,31.4,30.08,North,5,0.0,0.0,93,0.00,,,0.00,0,Wunderground v.1.15,2013-03-15 03:30:00,
2013-03-14 22:32:00,33.1,31.3,30.07,North,5,0.0,0.0,93,0.00,,,0.00,0,Wunderground v.1.15,2013-03-15 03:32:00,
2013-03-14 22:34:00,32.9,31.1,30.07,North,5,0.0,0.0,93,0.00,,,0.00,0,Wunderground v.1.15,2013-03-15 03:34:00,
2013-03-14 22:35:00,32.8,31.0,30.07,North,5,0.0,0.0,93,0.00,,,0.00,0,Wunderground v.1.15,2013-03-15 03:35:00,
2013-03-14 22:36:00,32.8,31.0,30.07,North,5,0.0,0.0,93,0.00,,,0.00,0,Wunderground v.1.15,2013-03-15 03:36:00,
2013-03-14 22:38:00,32.6,30.8,30.07,North,5,0.0,0.0,93,0.00,,,0.00,0,Wunderground v.1.15,2013-03-15 03:38:00,
2013-03-14 22:39:00,32.8,31.0,30.07,North,5,0.0,0.0,93,0.00,,,0.00,0,Wunderground v.1.15,2013-03-15 03:39:00,
2013-03-14 22:41:00,32.8,31.0,30.06,North,5,0.0,0.0,93,0.00,,,0.00,0,Wunderground v.1.15,2013-03-15 03:41:00,
2013-03-14 22:42:00,32.7,30.9,30.06,North,5,0.0,0.0,93,0.00,,,0.00,0,Wunderground v.1.15,2013-03-15 03:42:00,
2013-03-14 22:44:00,32.5,30.7,30.06,North,5,0.0,0.0,93,0.00,,,0.00,0,Wunderground v.1.15,2013-03-15 03:44:00,
2013-03-14 22:45:00,32.4,30.6,30.06,North,5,0.0,0.0,93,0.00,,,0.00,0,Wunderground v.1.15,2013-03-15 03:45:00,
2013-03-14 22:46:00,32.4,30.6,30.06,North,5,0.0,0.0,93,0.00,,,0.00,0,Wunderground v.1.15,2013-03-15 03:46:00,
2013-03-14 22:47:00,32.4,30.9,30.06,North,5,0.0,0.0,94,0.00,,,0.00,0,Wunderground v.1.15,2013-03-15 03:47:00,
2013-03-14 22:49:00,32.4,30.9,30.06,North,5,0.0,0.0,94,0.00,,,0.00,0,Wunderground v.1.15,2013-03-15 03:49:00,
2013-03-14 22:50:00,32.3,30.8,30.06,North,5,0.0,0.0,94,0.00,,,0.00,0,Wunderground v.1.15,2013-03-15 03:50:00,
2013-03-14 22:52:00,31.9,30.1,30.06,North,5,0.0,0.0,93,0.00,,,0.00,0,Wunderground v.1.15,2013-03-15 03:52:00,
2013-03-14 22:53:00,31.6,29.8,30.06,North,5,0.0,0.0,93,0.00,,,0.00,0,Wunderground v.1.15,2013-03-15 03:53:00,
2013-03-14 22:55:00,31.4,29.6,30.06,North,5,0.0,0.0,93,0.00,,,0.00,0,Wunderground v.1.15,2013-03-15 03:55:00,
2013-03-14 22:57:00,31.4,29.9,30.06,North,5,0.0,0.0,94,0.00,,,0.00,0,Wunderground v.1.15,2013-03-15 03:57:00,
2013-03-14 23:00:00,31.5,30.0,30.06,North,5,0.0,0.0,94,0.00,,,0.00,0,Wunderground v.1.15,2013-03-15 04:00:00,
2013-03-14 23:01:00,31.5,30.0,30.06,North,5,0.0,0.0,94,0.00,,,0.00,0,Wunderground v.1.15,2013-03-15 04:01:00,
2013-03-14 23:06:00,31.4,29.9,30.06,North,5,0.0,0.0,94,0.00,,,0.00,0,Wunderground v.1.15,2013-03-15 04:06:00,
2013-03-14 23:08:00,31.5,30.0,30.06,North,5,0.0,0.0,94,0.00,,,0.00,0,Wunderground v.1.15,2013-03-15 04:08:00,
2013-03-14 23:10:00,31.7,30.2,30.06,North,5,0.0,0.0,94,0.00,,,0.00,0,Wunderground v.1.15,2013-03-15 04:10:00,
2013-03-14 23:11:00,31.9,30.6,30.06,North,5,0.0,0.0,95,0.00,,,0.00,0,Wunderground v.1.15,2013-03-15 04:11:00,
2013-03-14 23:13:00,32.1,30.6,30.06,North,5,0.0,0.0,94,0.00,,,0.00,0,Wunderground v.1.15,2013-03-15 04:13:00,
2013-03-14 23:14:00,32.2,30.7,30.06,North,5,0.0,0.0,94,0.00,,,0.00,0,Wunderground v.1.15,2013-03-15 04:14:00,
2013-03-14 23:15:00,32.4,30.9,30.06,North,5,0.0,0.0,94,0.00,,,0.00,0,Wunderground v.1.15,2013-03-15 04:15:00,
2013-03-14 23:18:00,32.7,31.2,30.06,North,5,0.0,0.0,94,0.00,,,0.00,0,Wunderground v.1.15,2013-03-15 04:18:00,
2013-03-14 23:19:00,32.7,31.2,30.06,North,5,0.0,0.0,94,0.00,,,0.00,0,Wunderground v.1.15,2013-03-15 04:19:00,
2013-03-14 23:20:00,32.7,31.2,30.06,North,5,0.0,0.0,94,0.00,,,0.00,0,Wunderground v.1.15,2013-03-15 04:20:00,
2013-03-14 23:24:00,32.5,31.0,30.06,North,5,0.0,0.0,94,0.00,,,0.00,0,Wunderground v.1.15,2013-03-15 04:24:00,
2013-03-14 23:25:00,32.5,31.0,30.06,North,5,0.0,0.0,94,0.00,,,0.00,0,Wunderground v.1.15,2013-03-15 04:25:00,
2013-03-14 23:26:00,32.4,30.9,30.06,North,5,0.0,0.0,94,0.00,,,0.00,0,Wunderground v.1.15,2013-03-15 04:26:00,
2013-03-14 23:28:00,32.4,30.9,30.05,North,5,0.0,0.0,94,0.00,,,0.00,0,Wunderground v.1.15,2013-03-15 04:28:00,
2013-03-14 23:31:00,32.5,31.0,30.05,North,5,0.0,0.0,94,0.00,,,0.00,0,Wunderground v.1.15,2013-03-15 04:31:00,
2013-03-14 23:33:00,32.3,30.8,30.05,North,5,0.0,0.0,94,0.00,,,0.00,0,Wunderground v.1.15,2013-03-15 04:33:00,
2013-03-14 23:36:00,32.1,30.6,30.05,North,5,0.0,0.0,94,0.00,,,0.00,0,Wunderground v.1.15,2013-03-15 04:36:00,
2013-03-14 23:38:00,32.1,30.6,30.05,North,5,0.0,0.0,94,0.00,,,0.00,0,Wunderground v.1.15,2013-03-15 04:38:00,
2013-03-14 23:39:00,32.1,30.6,30.05,North,5,0.0,0.0,94,0.00,,,0.00,0,Wunderground v.1.15,2013-03-15 04:39:00,
2013-03-14 23:43:00,31.6,30.1,30.05,North,5,0.0,0.0,94,0.00,,,0.00,0,Wunderground v.1.15,2013-03-15 04:43:00,
2013-03-14 23:44:00,31.7,30.2,30.05,North,5,0.0,0.0,94,0.00,,,0.00,0,Wunderground v.1.15,2013-03-15 04:44:00,
2013-03-14 23:45:00,31.8,30.5,30.05,North,5,0.0,0.0,95,0.00,,,0.00,0,Wunderground v.1.15,2013-03-15 04:45:00,
2013-03-14 23:49:00,32.0,30.7,30.05,North,5,0.0,0.0,95,0.00,,,0.00,0,Wunderground v.1.15,2013-03-15 04:49:00,
2013-03-14 23:50:00,32.0,30.7,30.05,North,5,0.0,0.0,95,0.00,,,0.00,0,Wunderground v.1.15,2013-03-15 04:50:00,
2013-03-14 23:51:00,32.0,30.7,30.05,North,5,0.0,0.0,95,0.00,,,0.00,0,Wunderground v.1.15,2013-03-15 04:51:00,
2013-03-14 23:53:00,32.0,30.7,30.05,North,5,0.0,0.0,95,0.00,,,0.00,0,Wunderground v.1.15,2013-03-15 04:53:00,
2013-03-14 23:54:00,32.1,30.8,30.05,North,5,0.0,0.0,95,0.00,,,0.00,0,Wunderground v.1.15,2013-03-15 04:54:00,
2013-03-14 23:56:00,32.1,30.8,30.05,North,5,0.0,0.0,95,0.00,,,0.00,0,Wunderground v.1.15,2013-03-15 04:56:00,
2013-03-14 23:57:00,32.1,30.8,30.05,North,5,0.0,0.0,95,0.00,,,0.00,0,Wunderground v.1.15,2013-03-15 04:57:00,
2013-03-14 23:58:00,32.1,30.8,30.05,North,5,0.0,0.0,95,0.00,,,0.00,0,Wunderground v.1.15,2013-03-15 04:58:00,